EVA190 LOWW-VTBS

Flight info

Callsign EVA190
Flight time 9h 32m
Altitude 40000
Route ASPIB2C ADAMA DCT VEDER DCT ALAMU DCT BUDOP DCT IRLOX DCT OPT DCT LUGEB DCT UDROS DCT BAMUP DCT ROLIN N644 ODILI DCT BARAD M747 SULEL N449 DUKAN B449 RANAH L750 MERUN G452 LKN R460 BBN P646 JJS Z12 DOPID P646 PTN N895 BETNO G463 TARED DCT WILLA WILLA1C
Aircraft B77W/H-SDE1E2E3FGHIJ2J3J4J5M1RWXY/LB1D1

Departure

Time 2026-04-26 02:52
Airport Vienna International Airport (LOWW)

Arrival

Time 2026-04-26 12:25
Airport Suvarnabhumi Airport (VTBS)
Time Latitude Longitude Altitude Speed Heading
2026-04-26 01:56 48.11755 16.56116 595 ft 0 kts 26°
2026-04-26 02:31 48.11744 16.56108 594 ft 2 kts 26°
2026-04-26 02:32 48.11730 16.56098 594 ft 2 kts 37°
2026-04-26 02:32 48.11720 16.56083 594 ft 2 kts 57°
2026-04-26 02:32 48.11713 16.56063 594 ft 2 kts 74°
2026-04-26 02:32 48.11711 16.56041 593 ft 2 kts 91°
2026-04-26 02:33 48.11713 16.56019 593 ft 2 kts 108°
2026-04-26 02:33 48.11716 16.56008 593 ft 1 kts 116°
2026-04-26 02:33 48.11716 16.56005 592 ft 0 kts 116°
2026-04-26 02:37 48.11715 16.56011 593 ft 1 kts 116°
2026-04-26 02:37 48.11706 16.56035 593 ft 3 kts 116°
2026-04-26 02:37 48.11692 16.56078 594 ft 5 kts 116°
2026-04-26 02:38 48.11672 16.56139 595 ft 7 kts 116°
2026-04-26 02:38 48.11646 16.56218 597 ft 9 kts 116°
2026-04-26 02:38 48.11615 16.56312 599 ft 10 kts 116°
2026-04-26 02:38 48.11582 16.56413 602 ft 10 kts 116°
2026-04-26 02:39 48.11550 16.56511 606 ft 10 kts 116°
2026-04-26 02:39 48.11517 16.56613 608 ft 11 kts 116°
2026-04-26 02:39 48.11480 16.56728 610 ft 13 kts 116°
2026-04-26 02:39 48.11437 16.56857 611 ft 14 kts 116°
2026-04-26 02:40 48.11389 16.57004 612 ft 16 kts 116°
2026-04-26 02:40 48.11335 16.57173 612 ft 19 kts 116°
2026-04-26 02:40 48.11269 16.57372 608 ft 23 kts 116°
2026-04-26 02:40 48.11214 16.57538 605 ft 16 kts 116°
2026-04-26 02:41 48.11158 16.57716 602 ft 20 kts 116°
2026-04-26 02:41 48.11120 16.57835 603 ft 13 kts 116°
2026-04-26 02:41 48.11043 16.57932 603 ft 15 kts 160°
2026-04-26 02:41 48.10948 16.57974 604 ft 7 kts 165°
2026-04-26 02:42 48.10887 16.57999 604 ft 10 kts 165°
2026-04-26 02:42 48.10811 16.58031 606 ft 12 kts 165°
2026-04-26 02:42 48.10717 16.58072 606 ft 14 kts 164°
2026-04-26 02:42 48.10611 16.58117 608 ft 16 kts 165°
2026-04-26 02:43 48.10479 16.58109 610 ft 11 kts 212°
2026-04-26 02:43 48.10403 16.58079 612 ft 11 kts 172°
2026-04-26 02:43 48.10315 16.58108 613 ft 13 kts 168°
2026-04-26 02:44 48.10214 16.58144 613 ft 16 kts 164°
2026-04-26 02:44 48.10102 16.58196 613 ft 10 kts 163°
2026-04-26 02:44 48.10023 16.58229 614 ft 12 kts 165°
2026-04-26 02:44 48.09927 16.58267 613 ft 15 kts 165°
2026-04-26 02:45 48.09810 16.58316 612 ft 18 kts 163°
2026-04-26 02:45 48.09674 16.58376 611 ft 21 kts 165°
2026-04-26 02:45 48.09579 16.58415 611 ft 14 kts 165°
2026-04-26 02:45 48.09471 16.58459 610 ft 17 kts 164°
2026-04-26 02:46 48.09341 16.58514 608 ft 20 kts 165°
2026-04-26 02:46 48.09226 16.58563 606 ft 15 kts 165°
2026-04-26 02:46 48.09120 16.58606 604 ft 9 kts 165°
2026-04-26 02:46 48.09036 16.58641 601 ft 7 kts 165°
2026-04-26 02:47 48.08980 16.58666 599 ft 11 kts 163°
2026-04-26 02:47 48.08926 16.58691 597 ft 8 kts 163°
2026-04-26 02:47 48.08854 16.58736 593 ft 14 kts 146°
2026-04-26 02:47 48.08806 16.58817 589 ft 12 kts 118°
2026-04-26 02:48 48.08794 16.58901 587 ft 0 kts 84°
2026-04-26 02:49 48.08794 16.58903 587 ft 0 kts 84°
2026-04-26 02:49 48.08796 16.58921 587 ft 2 kts 84°
2026-04-26 02:49 48.08801 16.58961 586 ft 4 kts 73°
2026-04-26 02:49 48.08818 16.59012 585 ft 5 kts 55°
2026-04-26 02:50 48.08847 16.59056 585 ft 5 kts 38°
2026-04-26 02:50 48.08880 16.59083 585 ft 5 kts 24°
2026-04-26 02:50 48.08909 16.59097 585 ft 3 kts
2026-04-26 02:50 48.08929 16.59100 586 ft 2 kts
2026-04-26 02:51 48.08942 16.59099 586 ft 2 kts 354°
2026-04-26 02:51 48.08958 16.59095 586 ft 2 kts 351°
2026-04-26 02:51 48.08975 16.59089 587 ft 2 kts 344°
2026-04-26 02:51 48.09007 16.59074 588 ft 13 kts 343°
2026-04-26 02:52 48.09199 16.58993 593 ft 45 kts 343°
2026-04-26 02:52 48.09740 16.58761 604 ft 125 kts 345°
2026-04-26 02:52 48.10837 16.58292 703 ft 199 kts 342°
2026-04-26 02:52 48.12326 16.57639 1260 ft 240 kts 343°
2026-04-26 02:53 48.13852 16.57117 3144 ft 224 kts 352°
2026-04-26 02:53 48.15316 16.57340 4455 ft 220 kts 10°
2026-04-26 02:53 48.16726 16.58536 5005 ft 256 kts 36°
2026-04-26 02:53 48.17682 16.60970 5616 ft 292 kts 70°
2026-04-26 02:54 48.17662 16.64064 6444 ft 312 kts 99°
2026-04-26 02:54 48.17083 16.67188 7354 ft 318 kts 104°
2026-04-26 02:54 48.16401 16.70327 8305 ft 321 kts 106°
2026-04-26 02:54 48.15633 16.73486 9186 ft 327 kts 109°
2026-04-26 02:55 48.14814 16.76647 10108 ft 329 kts 109°
2026-04-26 02:55 48.13985 16.79853 10783 ft 341 kts 108°
2026-04-26 02:55 48.13115 16.83246 11346 ft 358 kts 109°
2026-04-26 02:55 48.12082 16.86698 11902 ft 375 kts 118°
2026-04-26 02:56 48.10579 16.89992 12475 ft 392 kts 130°
2026-04-26 02:56 48.08674 16.92945 13063 ft 406 kts 137°
2026-04-26 02:56 48.06599 16.95899 13667 ft 421 kts 137°
2026-04-26 02:56 48.04488 16.99003 14298 ft 434 kts 131°
2026-04-26 02:57 48.02649 17.02649 15038 ft 444 kts 120°
2026-04-26 02:57 48.01244 17.06786 15953 ft 446 kts 109°
2026-04-26 02:57 48.00355 17.11136 16936 ft 445 kts 99°
2026-04-26 02:57 47.99927 17.15691 17799 ft 447 kts 92°
2026-04-26 02:58 47.99641 17.20342 18684 ft 452 kts 91°
2026-04-26 02:58 47.99342 17.24986 19530 ft 457 kts 92°
2026-04-26 02:58 47.99019 17.29703 20322 ft 462 kts 92°
2026-04-26 02:58 47.98548 17.34464 21075 ft 471 kts 99°
2026-04-26 02:59 47.97653 17.39169 21777 ft 479 kts 104°
2026-04-26 02:59 47.96631 17.43918 22481 ft 485 kts 105°
2026-04-26 02:59 47.95586 17.48707 23165 ft 491 kts 105°
2026-04-26 02:59 47.94526 17.53546 23896 ft 496 kts 105°
2026-04-26 03:00 47.93457 17.58411 24593 ft 500 kts 105°
2026-04-26 03:00 47.92358 17.63395 25219 ft 506 kts 105°
2026-04-26 03:00 47.91266 17.68338 25868 ft 511 kts 105°
2026-04-26 03:00 47.90144 17.73402 26561 ft 515 kts 105°
2026-04-26 03:01 47.89022 17.78451 27181 ft 520 kts 105°
2026-04-26 03:01 47.87886 17.83553 27757 ft 525 kts 105°
2026-04-26 03:01 47.86741 17.88684 28354 ft 529 kts 105°
2026-04-26 03:01 47.85571 17.93910 28898 ft 535 kts 105°
2026-04-26 03:02 47.84259 17.99204 29507 ft 540 kts 110°
2026-04-26 03:02 47.82721 18.04253 30350 ft 539 kts 112°
2026-04-26 03:02 47.81141 18.09313 31315 ft 534 kts 111°
2026-04-26 03:02 47.79586 18.14273 32295 ft 527 kts 111°
2026-04-26 03:03 47.78034 18.19215 33142 ft 522 kts 111°
2026-04-26 03:03 47.76499 18.24097 33890 ft 519 kts 111°
2026-04-26 03:03 47.74961 18.28985 34449 ft 519 kts 111°
2026-04-26 03:03 47.73435 18.33825 35018 ft 518 kts 111°
2026-04-26 03:04 47.71903 18.38727 35614 ft 516 kts 111°
2026-04-26 03:04 47.70406 18.43520 36256 ft 513 kts 111°
2026-04-26 03:04 47.68910 18.48307 36694 ft 513 kts 111°
2026-04-26 03:04 47.67426 18.53047 36702 ft 514 kts 112°
2026-04-26 03:05 47.64412 18.62634 36702 ft 510 kts 111°
2026-04-26 03:05 47.61421 18.72116 36697 ft 511 kts 112°
2026-04-26 03:06 47.58429 18.81564 36690 ft 510 kts 112°
2026-04-26 03:06 47.55412 18.91054 36679 ft 510 kts 112°
2026-04-26 03:07 47.52381 19.00551 36676 ft 509 kts 112°
2026-04-26 03:07 47.49357 19.09992 36675 ft 509 kts 112°
2026-04-26 03:08 47.46315 19.19451 36686 ft 511 kts 112°
2026-04-26 03:08 47.43269 19.28890 36672 ft 510 kts 112°
2026-04-26 03:09 47.40210 19.38335 36675 ft 511 kts 112°
2026-04-26 03:09 47.37151 19.47743 36666 ft 513 kts 112°
2026-04-26 03:10 47.34063 19.57207 36662 ft 511 kts 113°
2026-04-26 03:10 47.30977 19.66631 36658 ft 514 kts 114°
2026-04-26 03:11 47.27877 19.76061 36643 ft 512 kts 114°
2026-04-26 03:11 47.24772 19.85470 36648 ft 514 kts 114°
2026-04-26 03:12 47.21635 19.94945 36650 ft 513 kts 114°
2026-04-26 03:12 47.18505 20.04362 36634 ft 514 kts 114°
2026-04-26 03:13 47.15375 20.13744 36353 ft 510 kts 114°
2026-04-26 03:13 47.13835 20.18347 36597 ft 511 kts 114°
2026-04-26 03:13 47.12266 20.23032 36628 ft 516 kts 114°
2026-04-26 03:14 47.09095 20.32470 36627 ft 516 kts 114°
2026-04-26 03:14 47.05917 20.41896 36628 ft 517 kts 114°
2026-04-26 03:15 47.02730 20.51312 36632 ft 518 kts 114°
2026-04-26 03:15 46.99530 20.60734 36633 ft 517 kts 114°
2026-04-26 03:16 46.96315 20.70166 36626 ft 520 kts 115°
2026-04-26 03:16 46.93102 20.79559 36633 ft 520 kts 115°
2026-04-26 03:17 46.89861 20.88997 36642 ft 520 kts 116°
2026-04-26 03:17 46.86629 20.98376 36616 ft 522 kts 115°
2026-04-26 03:18 46.83380 21.07772 36626 ft 521 kts 116°
2026-04-26 03:18 46.80100 21.17222 36635 ft 522 kts 116°
2026-04-26 03:19 46.76823 21.26630 36630 ft 522 kts 116°
2026-04-26 03:19 46.73537 21.36031 36633 ft 523 kts 116°
2026-04-26 03:20 46.70240 21.45431 36638 ft 522 kts 116°
2026-04-26 03:20 46.66882 21.54789 36647 ft 523 kts 117°
2026-04-26 03:21 46.63412 21.64029 36648 ft 524 kts 117°
2026-04-26 03:21 46.59928 21.73286 36647 ft 522 kts 118°
2026-04-26 03:22 46.56450 21.82510 36648 ft 525 kts 118°
2026-04-26 03:22 46.52960 21.91742 36642 ft 523 kts 118°
2026-04-26 03:23 46.49449 22.01001 36648 ft 526 kts 118°
2026-04-26 03:23 46.45929 22.10254 36657 ft 525 kts 118°
2026-04-26 03:24 46.42401 22.19498 36667 ft 527 kts 119°
2026-04-26 03:24 46.38869 22.28723 36670 ft 526 kts 119°
2026-04-26 03:25 46.35316 22.37972 36660 ft 527 kts 119°
2026-04-26 03:25 46.31747 22.47231 36669 ft 526 kts 119°
2026-04-26 03:26 46.28185 22.56441 36670 ft 528 kts 119°
2026-04-26 03:26 46.24609 22.65656 36674 ft 528 kts 120°
2026-04-26 03:27 46.20992 22.74943 36665 ft 527 kts 120°
2026-04-26 03:27 46.17398 22.84142 36667 ft 529 kts 120°
2026-04-26 03:28 46.13800 22.93319 36659 ft 527 kts 120°
2026-04-26 03:28 46.10189 23.02500 36672 ft 530 kts 120°
2026-04-26 03:29 46.06559 23.11698 36685 ft 530 kts 120°
2026-04-26 03:29 46.02914 23.20903 36668 ft 529 kts 120°
2026-04-26 03:30 45.99282 23.30044 36673 ft 528 kts 120°
2026-04-26 03:30 45.95653 23.39148 36671 ft 529 kts 120°
2026-04-26 03:31 45.92007 23.48265 36661 ft 527 kts 120°
2026-04-26 03:31 45.88352 23.57373 36657 ft 527 kts 120°
2026-04-26 03:32 45.84692 23.66462 36659 ft 528 kts 121°
2026-04-26 03:32 45.81030 23.75530 36636 ft 526 kts 121°
2026-04-26 03:33 45.77364 23.84576 36624 ft 527 kts 121°
2026-04-26 03:33 45.73704 23.93578 36614 ft 527 kts 121°
2026-04-26 03:34 45.70009 24.02637 36609 ft 528 kts 121°
2026-04-26 03:34 45.66325 24.11639 36607 ft 526 kts 121°
2026-04-26 03:35 45.62608 24.20678 36628 ft 526 kts 121°
2026-04-26 03:35 45.58836 24.29613 36637 ft 528 kts 121°
2026-04-26 03:36 45.55049 24.38550 36658 ft 526 kts 121°
2026-04-26 03:36 45.51265 24.47457 36674 ft 528 kts 121°
2026-04-26 03:37 45.47482 24.56337 36682 ft 526 kts 121°
2026-04-26 03:37 45.43684 24.65223 36686 ft 527 kts 122°
2026-04-26 03:38 45.39883 24.74094 36673 ft 527 kts 122°
2026-04-26 03:38 45.36048 24.83013 36670 ft 527 kts 122°
2026-04-26 03:39 45.32202 24.91931 36665 ft 527 kts 122°
2026-04-26 03:39 45.28371 25.00787 36647 ft 527 kts 122°
2026-04-26 03:40 45.24526 25.09647 36639 ft 526 kts 122°
2026-04-26 03:40 45.20695 25.18446 36648 ft 527 kts 122°
2026-04-26 03:41 45.16853 25.27244 36650 ft 526 kts 122°
2026-04-26 03:41 45.13012 25.36012 36644 ft 526 kts 122°
2026-04-26 03:42 45.09166 25.44767 36640 ft 527 kts 122°
2026-04-26 03:42 45.05294 25.53552 36638 ft 526 kts 122°
2026-04-26 03:43 45.01432 25.62286 36637 ft 525 kts 122°
2026-04-26 03:43 44.97554 25.71030 36628 ft 526 kts 123°
2026-04-26 03:44 44.93678 25.79744 36628 ft 525 kts 123°
2026-04-26 03:44 44.89793 25.88450 36629 ft 526 kts 123°
2026-04-26 03:45 44.85898 25.97154 36623 ft 526 kts 123°
2026-04-26 03:45 44.82008 26.05818 36622 ft 524 kts 123°
2026-04-26 03:46 44.78101 26.14494 36622 ft 524 kts 123°
2026-04-26 03:47 44.72250 26.27439 36616 ft 523 kts 122°
2026-04-26 03:47 44.68354 26.36025 36613 ft 523 kts 122°
2026-04-26 03:48 44.64463 26.44577 36621 ft 522 kts 122°
2026-04-26 03:48 44.60537 26.53177 36621 ft 523 kts 122°
2026-04-26 03:49 44.56702 26.61823 36628 ft 522 kts 120°
2026-04-26 03:49 44.54840 26.66203 36987 ft 522 kts 121°
2026-04-26 03:49 44.52981 26.70567 36479 ft 520 kts 121°
2026-04-26 03:49 44.51151 26.74850 36949 ft 521 kts 121°
2026-04-26 03:50 44.49270 26.79242 36723 ft 522 kts 121°
2026-04-26 03:50 44.45572 26.87844 36631 ft 517 kts 121°
2026-04-26 03:50 44.43702 26.92182 36300 ft 519 kts 121°
2026-04-26 03:51 44.41847 26.96476 36714 ft 518 kts 121°
2026-04-26 03:51 44.38148 27.05016 36729 ft 517 kts 121°
2026-04-26 03:52 44.34409 27.13620 36731 ft 518 kts 121°
2026-04-26 03:52 44.30665 27.22208 36730 ft 517 kts 121°
2026-04-26 03:53 44.26939 27.30729 36392 ft 517 kts 121°
2026-04-26 03:53 44.25062 27.35011 36658 ft 517 kts 121°
2026-04-26 03:53 44.23193 27.39269 36723 ft 521 kts 121°
2026-04-26 03:54 44.19429 27.47827 36727 ft 518 kts 121°
2026-04-26 03:54 44.15652 27.56385 37095 ft 518 kts 121°
2026-04-26 03:54 44.13773 27.60634 36891 ft 519 kts 121°
2026-04-26 03:55 44.11901 27.64862 36728 ft 514 kts 121°
2026-04-26 03:55 44.08150 27.73314 36807 ft 516 kts 122°
2026-04-26 03:55 44.06255 27.77573 36442 ft 518 kts 122°
2026-04-26 03:56 44.04382 27.81777 36707 ft 516 kts 122°
2026-04-26 03:56 44.00596 27.90257 36729 ft 517 kts 122°
2026-04-26 03:57 43.96802 27.98728 36728 ft 517 kts 122°
2026-04-26 03:57 43.93024 28.07141 36732 ft 514 kts 122°
2026-04-26 03:57 43.91119 28.11375 37033 ft 516 kts 121°
2026-04-26 03:58 43.89214 28.15601 36755 ft 514 kts 122°
2026-04-26 03:58 43.85459 28.23915 36735 ft 512 kts 122°
2026-04-26 03:58 43.83563 28.28102 36397 ft 514 kts 122°
2026-04-26 03:59 43.81683 28.32251 36665 ft 513 kts 121°
2026-04-26 03:59 43.77885 28.40610 36731 ft 515 kts 121°
2026-04-26 04:00 43.74077 28.48968 36740 ft 512 kts 121°
2026-04-26 04:00 43.72185 28.53104 37081 ft 513 kts 121°
2026-04-26 04:00 43.70278 28.57251 36799 ft 513 kts 122°
2026-04-26 04:01 43.66482 28.65488 36740 ft 509 kts 122°
2026-04-26 04:01 43.62673 28.73729 36738 ft 509 kts 122°
2026-04-26 04:02 43.58883 28.81908 36399 ft 507 kts 122°
2026-04-26 04:02 43.56989 28.85986 36642 ft 508 kts 122°
2026-04-26 04:02 43.55099 28.90051 36743 ft 512 kts 122°
2026-04-26 04:03 43.51255 28.98301 36747 ft 509 kts 122°
2026-04-26 04:03 43.47458 29.06426 36747 ft 509 kts 122°
2026-04-26 04:04 43.43612 29.14636 36756 ft 508 kts 122°
2026-04-26 04:04 43.39790 29.22768 36753 ft 508 kts 122°
2026-04-26 04:05 43.35989 29.30836 36750 ft 507 kts 122°
2026-04-26 04:05 43.32155 29.38953 36751 ft 507 kts 122°
2026-04-26 04:06 43.28300 29.47088 36754 ft 506 kts 122°
2026-04-26 04:06 43.24465 29.55160 36756 ft 506 kts 122°
2026-04-26 04:07 43.20644 29.63182 36759 ft 504 kts 122°
2026-04-26 04:07 43.16822 29.71185 36757 ft 505 kts 122°
2026-04-26 04:08 43.12965 29.79237 36762 ft 504 kts 122°
2026-04-26 04:08 43.09143 29.87195 36757 ft 504 kts 123°
2026-04-26 04:09 43.05309 29.95157 36752 ft 503 kts 123°
2026-04-26 04:09 43.01451 30.03146 36756 ft 503 kts 122°
2026-04-26 04:10 42.97632 30.11034 36770 ft 501 kts 122°
2026-04-26 04:10 42.93794 30.18941 36775 ft 502 kts 122°
2026-04-26 04:11 42.89957 30.26825 36778 ft 501 kts 122°
2026-04-26 04:11 42.86113 30.34701 36774 ft 500 kts 122°
2026-04-26 04:12 42.82246 30.42603 36773 ft 500 kts 122°
2026-04-26 04:12 42.78400 30.50443 36771 ft 500 kts 122°
2026-04-26 04:13 42.74844 30.58477 36770 ft 497 kts 112°
2026-04-26 04:13 42.72989 30.67511 36770 ft 495 kts 96°
2026-04-26 04:14 42.72091 30.76727 36776 ft 493 kts 96°
2026-04-26 04:14 42.71181 30.85972 36769 ft 494 kts 96°
2026-04-26 04:15 42.70254 30.95160 36774 ft 493 kts 96°
2026-04-26 04:15 42.69312 31.04330 36778 ft 494 kts 96°
2026-04-26 04:16 42.68355 31.13536 36766 ft 494 kts 96°
2026-04-26 04:16 42.67386 31.22758 36767 ft 494 kts 96°
2026-04-26 04:17 42.66408 31.31979 36768 ft 493 kts 96°
2026-04-26 04:17 42.65429 31.41134 36763 ft 493 kts 96°
2026-04-26 04:18 42.64437 31.50339 36772 ft 493 kts 96°
2026-04-26 04:18 42.63441 31.59496 36768 ft 493 kts 96°
2026-04-26 04:19 42.62439 31.68647 36768 ft 492 kts 97°
2026-04-26 04:19 42.61424 31.77853 36764 ft 493 kts 97°
2026-04-26 04:20 42.60406 31.87003 36766 ft 493 kts 97°
2026-04-26 04:20 42.59383 31.96132 36774 ft 493 kts 97°
2026-04-26 04:21 42.58423 32.05327 36762 ft 491 kts 93°
2026-04-26 04:21 42.57975 32.14529 36766 ft 493 kts 92°
2026-04-26 04:22 42.57515 32.23792 36766 ft 493 kts 92°
2026-04-26 04:22 42.57030 32.32996 36770 ft 493 kts 92°
2026-04-26 04:23 42.56523 32.42271 36770 ft 492 kts 92°
2026-04-26 04:23 42.56004 32.51516 36766 ft 493 kts 92°
2026-04-26 04:24 42.55476 32.60747 36770 ft 493 kts 92°
2026-04-26 04:24 42.54942 32.69932 36766 ft 493 kts 93°
2026-04-26 04:25 42.54394 32.79198 36765 ft 493 kts 93°
2026-04-26 04:25 42.53841 32.88418 36765 ft 495 kts 93°
2026-04-26 04:26 42.53276 32.97700 36766 ft 494 kts 93°
2026-04-26 04:26 42.52706 33.06944 36769 ft 494 kts 93°
2026-04-26 04:27 42.52128 33.16188 36768 ft 493 kts 93°
2026-04-26 04:27 42.51543 33.25422 36767 ft 493 kts 94°
2026-04-26 04:28 42.50954 33.34615 36768 ft 493 kts 94°
2026-04-26 04:28 42.50357 33.43807 36766 ft 493 kts 94°
2026-04-26 04:29 42.49749 33.53066 36775 ft 494 kts 94°
2026-04-26 04:29 42.49134 33.62298 36771 ft 494 kts 94°
2026-04-26 04:30 42.48510 33.71563 36764 ft 494 kts 94°
2026-04-26 04:30 42.47884 33.80740 36765 ft 494 kts 94°
2026-04-26 04:31 42.47243 33.90017 36768 ft 494 kts 94°
2026-04-26 04:31 42.46601 33.99221 36770 ft 493 kts 95°
2026-04-26 04:32 42.45949 34.08450 36761 ft 494 kts 95°
2026-04-26 04:32 42.45289 34.17688 36773 ft 494 kts 95°
2026-04-26 04:33 42.44627 34.26846 36777 ft 493 kts 95°
2026-04-26 04:33 42.43953 34.36065 36779 ft 493 kts 95°
2026-04-26 04:34 42.43270 34.45300 36776 ft 493 kts 95°
2026-04-26 04:34 42.42581 34.54517 36777 ft 493 kts 95°
2026-04-26 04:35 42.41888 34.63689 36778 ft 495 kts 95°
2026-04-26 04:35 42.41183 34.72925 36780 ft 493 kts 95°
2026-04-26 04:36 42.40474 34.82117 36773 ft 493 kts 96°
2026-04-26 04:36 42.39753 34.91357 36772 ft 493 kts 96°
2026-04-26 04:37 42.39031 35.00520 36775 ft 493 kts 96°
2026-04-26 04:37 42.38295 35.09754 36776 ft 494 kts 96°
2026-04-26 04:38 42.37559 35.18899 36781 ft 494 kts 96°
2026-04-26 04:38 42.36811 35.28110 36777 ft 494 kts 96°
2026-04-26 04:39 42.36054 35.37337 36788 ft 494 kts 96°
2026-04-26 04:39 42.35290 35.46552 36783 ft 495 kts 96°
2026-04-26 04:40 42.34518 35.55761 36790 ft 495 kts 96°
2026-04-26 04:40 42.33744 35.64925 36781 ft 495 kts 96°
2026-04-26 04:41 42.32956 35.74149 36785 ft 496 kts 97°
2026-04-26 04:41 42.32165 35.83327 36787 ft 495 kts 97°
2026-04-26 04:42 42.31362 35.92558 36783 ft 495 kts 97°
2026-04-26 04:42 42.30557 36.01729 36787 ft 494 kts 97°
2026-04-26 04:43 42.29744 36.10894 36789 ft 495 kts 97°
2026-04-26 04:43 42.28914 36.20164 36788 ft 496 kts 97°
2026-04-26 04:44 42.28087 36.29326 36780 ft 497 kts 97°
2026-04-26 04:44 42.27245 36.38569 36779 ft 497 kts 97°
2026-04-26 04:45 42.26398 36.47777 36787 ft 496 kts 97°
2026-04-26 04:45 42.25545 36.56970 36791 ft 496 kts 97°
2026-04-26 04:46 42.24681 36.66207 36790 ft 496 kts 98°
2026-04-26 04:46 42.23814 36.75383 36784 ft 496 kts 98°
2026-04-26 04:47 42.22938 36.84579 36791 ft 497 kts 98°
2026-04-26 04:47 42.22050 36.93821 36791 ft 497 kts 98°
2026-04-26 04:48 42.20708 37.07645 36789 ft 498 kts 98°
2026-04-26 04:48 42.19802 37.16873 36799 ft 497 kts 98°
2026-04-26 04:49 42.18889 37.26097 36806 ft 498 kts 98°
2026-04-26 04:49 42.17971 37.35298 36796 ft 498 kts 98°
2026-04-26 04:50 42.17043 37.44514 36806 ft 498 kts 98°
2026-04-26 04:50 42.16108 37.53728 36800 ft 498 kts 98°
2026-04-26 04:51 42.15163 37.62963 36805 ft 498 kts 98°
2026-04-26 04:51 42.14212 37.72190 36804 ft 500 kts 99°
2026-04-26 04:52 42.13253 37.81415 36806 ft 499 kts 99°
2026-04-26 04:52 42.12288 37.90621 36805 ft 499 kts 99°
2026-04-26 04:53 42.11312 37.99860 36813 ft 499 kts 99°
2026-04-26 04:53 42.10335 38.09040 36809 ft 499 kts 99°
2026-04-26 04:54 42.09342 38.18296 36807 ft 500 kts 99°
2026-04-26 04:54 42.08342 38.27541 36807 ft 500 kts 99°
2026-04-26 04:55 42.07339 38.36747 36808 ft 501 kts 99°
2026-04-26 04:55 42.06319 38.46038 36808 ft 502 kts 99°
2026-04-26 04:56 42.05299 38.55253 36811 ft 502 kts 99°
2026-04-26 04:56 42.04268 38.64506 36813 ft 502 kts 99°
2026-04-26 04:57 42.03223 38.73802 36806 ft 502 kts 100°
2026-04-26 04:57 42.02179 38.83033 36807 ft 502 kts 100°
2026-04-26 04:58 42.01124 38.92282 36807 ft 503 kts 100°
2026-04-26 04:58 42.00065 39.01509 36807 ft 503 kts 100°
2026-04-26 04:59 41.98992 39.10782 36808 ft 504 kts 100°
2026-04-26 04:59 41.97914 39.20034 36811 ft 504 kts 100°
2026-04-26 05:00 41.96824 39.29319 36807 ft 503 kts 100°
2026-04-26 05:00 41.95726 39.38609 36803 ft 504 kts 100°
2026-04-26 05:01 41.94625 39.47852 36810 ft 505 kts 100°
2026-04-26 05:01 41.93509 39.57160 36810 ft 505 kts 100°
2026-04-26 05:02 41.92388 39.66443 36807 ft 506 kts 101°
2026-04-26 05:02 41.91257 39.75745 36801 ft 507 kts 101°
2026-04-26 05:03 41.90124 39.84995 36802 ft 508 kts 101°
2026-04-26 05:03 41.88971 39.94349 36803 ft 508 kts 101°
2026-04-26 05:04 41.87814 40.03663 36804 ft 507 kts 101°
2026-04-26 05:04 41.86653 40.12947 36809 ft 508 kts 101°
2026-04-26 05:05 41.85483 40.22247 36805 ft 508 kts 101°
2026-04-26 05:05 41.84298 40.31604 36808 ft 508 kts 101°
2026-04-26 05:06 41.83111 40.40905 36809 ft 509 kts 101°
2026-04-26 05:06 41.81920 40.50182 36809 ft 510 kts 101°
2026-04-26 05:07 41.80708 40.59550 36815 ft 510 kts 101°
2026-04-26 05:07 41.79554 40.68882 36802 ft 511 kts 97°
2026-04-26 05:08 41.79137 40.78384 36810 ft 513 kts 95°
2026-04-26 05:08 41.78742 40.87906 36816 ft 514 kts 95°
2026-04-26 05:09 41.78306 40.97396 36806 ft 514 kts 95°
2026-04-26 05:09 41.77842 41.06940 36819 ft 514 kts 95°
2026-04-26 05:10 41.77360 41.16478 36822 ft 515 kts 96°
2026-04-26 05:10 41.76862 41.26045 36819 ft 515 kts 96°
2026-04-26 05:11 41.76358 41.35551 36821 ft 515 kts 96°
2026-04-26 05:11 41.75840 41.45118 36828 ft 515 kts 96°
2026-04-26 05:12 41.75313 41.54689 36830 ft 517 kts 96°
2026-04-26 05:12 41.74779 41.64230 36837 ft 517 kts 96°
2026-04-26 05:13 41.74237 41.73765 36829 ft 516 kts 96°
2026-04-26 05:13 41.73683 41.83379 36851 ft 516 kts 96°
2026-04-26 05:14 41.73122 41.92964 36893 ft 518 kts 96°
2026-04-26 05:14 41.72555 42.02518 36911 ft 518 kts 96°
2026-04-26 05:15 41.71948 42.12124 36908 ft 518 kts 99°
2026-04-26 05:15 41.70900 42.21627 36922 ft 517 kts 101°
2026-04-26 05:16 41.69825 42.31137 36931 ft 517 kts 101°
2026-04-26 05:16 41.68762 42.40600 36937 ft 517 kts 101°
2026-04-26 05:17 41.67695 42.50106 36937 ft 517 kts 100°
2026-04-26 05:17 41.66621 42.59649 36947 ft 517 kts 100°
2026-04-26 05:18 41.65539 42.69214 36944 ft 519 kts 101°
2026-04-26 05:18 41.64458 42.78715 36952 ft 518 kts 101°
2026-04-26 05:19 41.63368 42.88222 36961 ft 520 kts 101°
2026-04-26 05:19 41.62268 42.97753 36977 ft 520 kts 101°
2026-04-26 05:20 41.61156 43.07316 36964 ft 518 kts 101°
2026-04-26 05:20 41.60048 43.16778 36967 ft 519 kts 101°
2026-04-26 05:21 41.58924 43.26304 36975 ft 520 kts 101°
2026-04-26 05:21 41.57793 43.35821 36976 ft 520 kts 101°
2026-04-26 05:22 41.56654 43.45345 36987 ft 520 kts 101°
2026-04-26 05:22 41.55506 43.54863 36991 ft 522 kts 101°
2026-04-26 05:23 41.54345 43.64428 36981 ft 520 kts 101°
2026-04-26 05:23 41.53182 43.73942 36989 ft 519 kts 102°
2026-04-26 05:24 41.52031 43.83286 36993 ft 521 kts 102°
2026-04-26 05:24 41.50858 43.92742 36982 ft 521 kts 102°
2026-04-26 05:25 41.49663 44.02312 36987 ft 520 kts 102°
2026-04-26 05:25 41.48466 44.11823 36997 ft 523 kts 102°
2026-04-26 05:26 41.47261 44.21345 36998 ft 521 kts 102°
2026-04-26 05:26 41.46047 44.30864 36998 ft 523 kts 102°
2026-04-26 05:27 41.44816 44.40455 37010 ft 524 kts 102°
2026-04-26 05:27 41.43587 44.49968 37016 ft 524 kts 102°
2026-04-26 05:28 41.42350 44.59470 37034 ft 523 kts 102°
2026-04-26 05:28 41.41102 44.69002 37021 ft 523 kts 103°
2026-04-26 05:29 41.39843 44.78543 37027 ft 525 kts 102°
2026-04-26 05:29 41.38579 44.88069 37030 ft 524 kts 103°
2026-04-26 05:30 41.37300 44.97641 37036 ft 525 kts 103°
2026-04-26 05:30 41.35974 45.07144 37032 ft 522 kts 107°
2026-04-26 05:31 41.33781 45.16362 37037 ft 522 kts 111°
2026-04-26 05:31 41.31457 45.25478 37038 ft 520 kts 112°
2026-04-26 05:32 41.29115 45.34597 37042 ft 520 kts 112°
2026-04-26 05:32 41.26775 45.43668 37049 ft 522 kts 112°
2026-04-26 05:33 41.24426 45.52732 37056 ft 521 kts 112°
2026-04-26 05:33 41.22060 45.61822 37051 ft 523 kts 112°
2026-04-26 05:34 41.19669 45.70956 37039 ft 521 kts 112°
2026-04-26 05:34 41.17285 45.80009 37031 ft 522 kts 113°
2026-04-26 05:35 41.14894 45.89053 37050 ft 523 kts 113°
2026-04-26 05:35 41.12486 45.98130 37057 ft 522 kts 113°
2026-04-26 05:36 41.10072 46.07192 37059 ft 522 kts 113°
2026-04-26 05:36 41.07642 46.16287 37064 ft 522 kts 113°
2026-04-26 05:37 41.05222 46.25305 37062 ft 524 kts 113°
2026-04-26 05:37 41.02795 46.34359 37065 ft 523 kts 113°
2026-04-26 05:38 41.00375 46.43419 37068 ft 524 kts 112°
2026-04-26 05:38 40.97930 46.52541 37061 ft 525 kts 113°
2026-04-26 05:39 40.95513 46.61527 37065 ft 523 kts 113°
2026-04-26 05:39 40.93061 46.70599 37054 ft 526 kts 114°
2026-04-26 05:40 40.90602 46.79672 37049 ft 525 kts 114°
2026-04-26 05:40 40.88144 46.88685 37044 ft 524 kts 114°
2026-04-26 05:41 40.85663 46.97733 37053 ft 524 kts 114°
2026-04-26 05:41 40.83190 47.06716 37052 ft 524 kts 114°
2026-04-26 05:42 40.80691 47.15762 37049 ft 526 kts 114°
2026-04-26 05:42 40.78171 47.24795 37038 ft 525 kts 114°
2026-04-26 05:43 40.75660 47.33760 37032 ft 524 kts 114°
2026-04-26 05:43 40.73124 47.42791 37037 ft 525 kts 114°
2026-04-26 05:44 40.70605 47.51757 37037 ft 526 kts 114°
2026-04-26 05:44 40.68045 47.60840 37037 ft 525 kts 114°
2026-04-26 05:45 40.65496 47.69849 37029 ft 524 kts 114°
2026-04-26 05:45 40.62948 47.78824 37030 ft 526 kts 114°
2026-04-26 05:46 40.60390 47.87802 37030 ft 526 kts 114°
2026-04-26 05:46 40.57834 47.96779 37027 ft 526 kts 113°
2026-04-26 05:47 40.55583 48.05943 37022 ft 528 kts 111°
2026-04-26 05:47 40.53348 48.15142 37005 ft 530 kts 111°
2026-04-26 05:48 40.51101 48.24327 37014 ft 528 kts 111°
2026-04-26 05:48 40.48850 48.33475 37017 ft 528 kts 111°
2026-04-26 05:49 40.45442 48.47225 37014 ft 527 kts 111°
2026-04-26 05:50 40.43164 48.56364 37010 ft 529 kts 111°
2026-04-26 05:50 40.40882 48.65479 37009 ft 527 kts 112°
2026-04-26 05:51 40.38588 48.74603 36996 ft 528 kts 112°
2026-04-26 05:51 40.36286 48.83722 36999 ft 528 kts 112°
2026-04-26 05:52 40.33990 48.92785 37001 ft 528 kts 112°
2026-04-26 05:52 40.31667 49.01917 36995 ft 529 kts 112°
2026-04-26 05:53 40.29331 49.11019 36995 ft 529 kts 112°
2026-04-26 05:53 40.26969 49.20130 37005 ft 529 kts 112°
2026-04-26 05:54 40.24624 49.29182 37006 ft 530 kts 112°
2026-04-26 05:54 40.22254 49.38335 37017 ft 531 kts 112°
2026-04-26 05:55 40.19893 49.47423 37017 ft 529 kts 112°
2026-04-26 05:55 40.18385 49.56814 37034 ft 536 kts 99°
2026-04-26 05:56 40.17499 49.66519 37027 ft 537 kts 99°
2026-04-26 05:56 40.16615 49.76170 37029 ft 537 kts 99°
2026-04-26 05:57 40.15725 49.85755 37032 ft 536 kts 99°
2026-04-26 05:57 40.14821 49.95391 37034 ft 537 kts 99°
2026-04-26 05:58 40.13905 50.05050 37039 ft 537 kts 99°
2026-04-26 05:58 40.12987 50.14647 37039 ft 536 kts 99°
2026-04-26 05:59 40.12056 50.24291 37041 ft 537 kts 99°
2026-04-26 05:59 40.11116 50.33934 37046 ft 536 kts 99°
2026-04-26 06:00 40.10171 50.43540 37048 ft 535 kts 99°
2026-04-26 06:00 40.09217 50.53156 37049 ft 535 kts 99°
2026-04-26 06:01 40.08253 50.62794 37057 ft 536 kts 99°
2026-04-26 06:01 40.07281 50.72425 37049 ft 537 kts 100°
2026-04-26 06:02 40.06307 50.81995 37056 ft 536 kts 100°
2026-04-26 06:02 40.05318 50.91635 37053 ft 537 kts 100°
2026-04-26 06:03 40.04325 51.01229 37056 ft 537 kts 100°
2026-04-26 06:03 40.03316 51.10894 37064 ft 538 kts 100°
2026-04-26 06:04 40.02302 51.20541 37060 ft 537 kts 100°
2026-04-26 06:04 40.01284 51.30141 37050 ft 537 kts 100°
2026-04-26 06:05 40.00258 51.39737 37058 ft 538 kts 100°
2026-04-26 06:05 39.99187 51.49360 37049 ft 537 kts 103°
2026-04-26 06:06 39.97505 51.58805 37051 ft 536 kts 106°
2026-04-26 06:06 39.95744 51.68230 37038 ft 535 kts 107°
2026-04-26 06:07 39.93980 51.77628 37031 ft 535 kts 107°
2026-04-26 06:07 39.92209 51.87009 37032 ft 537 kts 107°
2026-04-26 06:08 39.90428 51.96402 37036 ft 539 kts 107°
2026-04-26 06:08 39.88640 52.05793 37034 ft 537 kts 106°
2026-04-26 06:09 39.86838 52.15207 37034 ft 537 kts 106°
2026-04-26 06:09 39.85037 52.24571 37038 ft 536 kts 107°
2026-04-26 06:10 39.83229 52.33931 37037 ft 534 kts 106°
2026-04-26 06:10 39.81423 52.43232 37034 ft 536 kts 106°
2026-04-26 06:11 39.79593 52.52614 37038 ft 535 kts 106°
2026-04-26 06:11 39.77768 52.61934 37040 ft 534 kts 106°
2026-04-26 06:12 39.75931 52.71262 37026 ft 534 kts 107°
2026-04-26 06:12 39.74091 52.80568 37028 ft 535 kts 107°
2026-04-26 06:13 39.72268 52.89859 37029 ft 535 kts 106°
2026-04-26 06:13 39.70456 52.99200 37023 ft 534 kts 106°
2026-04-26 06:14 39.68639 53.08517 37011 ft 534 kts 106°
2026-04-26 06:14 39.66814 53.17821 37012 ft 534 kts 106°
2026-04-26 06:15 39.64984 53.27107 37017 ft 531 kts 106°
2026-04-26 06:15 39.63155 53.36346 37021 ft 532 kts 106°
2026-04-26 06:16 39.61315 53.45595 37013 ft 532 kts 106°
2026-04-26 06:16 39.59460 53.54879 37023 ft 533 kts 106°
2026-04-26 06:17 39.57599 53.64146 37020 ft 532 kts 106°
2026-04-26 06:17 39.55737 53.73383 37017 ft 531 kts 107°
2026-04-26 06:18 39.53869 53.82603 37021 ft 530 kts 107°
2026-04-26 06:18 39.51995 53.91818 37022 ft 532 kts 107°
2026-04-26 06:19 39.50109 54.01043 37024 ft 530 kts 106°
2026-04-26 06:19 39.48218 54.10177 37021 ft 530 kts 107°
2026-04-26 06:20 39.46301 54.19350 37022 ft 529 kts 107°
2026-04-26 06:20 39.44366 54.28565 37025 ft 530 kts 107°
2026-04-26 06:21 39.42442 54.37697 37028 ft 530 kts 107°
2026-04-26 06:21 39.40506 54.46847 37031 ft 529 kts 107°
2026-04-26 06:22 39.38567 54.55969 37033 ft 529 kts 107°
2026-04-26 06:22 39.36613 54.65128 37036 ft 528 kts 107°
2026-04-26 06:23 39.34657 54.74254 37023 ft 529 kts 107°
2026-04-26 06:23 39.32685 54.83421 37020 ft 529 kts 107°
2026-04-26 06:24 39.30725 54.92490 37019 ft 530 kts 107°
2026-04-26 06:24 39.28749 55.01597 37025 ft 529 kts 107°
2026-04-26 06:25 39.26769 55.10685 37024 ft 529 kts 107°
2026-04-26 06:25 39.24765 55.19844 37024 ft 529 kts 107°
2026-04-26 06:26 39.22778 55.28891 37024 ft 528 kts 107°
2026-04-26 06:26 39.20770 55.37992 37030 ft 529 kts 107°
2026-04-26 06:27 39.18757 55.47081 37037 ft 528 kts 107°
2026-04-26 06:27 39.16747 55.56120 37038 ft 529 kts 107°
2026-04-26 06:28 39.14715 55.65204 37036 ft 526 kts 107°
2026-04-26 06:28 39.12687 55.74229 37027 ft 529 kts 107°
2026-04-26 06:29 39.10645 55.83284 37025 ft 527 kts 107°
2026-04-26 06:29 39.08605 55.92291 37034 ft 527 kts 107°
2026-04-26 06:30 39.06556 56.01303 37020 ft 527 kts 107°
2026-04-26 06:30 39.04490 56.10353 37023 ft 527 kts 107°
2026-04-26 06:31 39.02419 56.19391 37020 ft 528 kts 107°
2026-04-26 06:31 39.00349 56.28392 37041 ft 527 kts 107°
2026-04-26 06:32 38.98063 56.37297 37041 ft 525 kts 110°
2026-04-26 06:32 38.95615 56.46096 37034 ft 526 kts 110°
2026-04-26 06:33 38.93162 56.54935 37037 ft 525 kts 110°
2026-04-26 06:33 38.90719 56.63743 37036 ft 524 kts 110°
2026-04-26 06:34 38.88274 56.72545 37027 ft 526 kts 111°
2026-04-26 06:34 38.85830 56.81326 37030 ft 526 kts 111°
2026-04-26 06:35 38.83379 56.90108 37029 ft 525 kts 111°
2026-04-26 06:35 38.80928 56.98863 37012 ft 525 kts 111°
2026-04-26 06:36 38.78451 57.07687 37021 ft 523 kts 111°
2026-04-26 06:36 38.76002 57.16379 37024 ft 524 kts 111°
2026-04-26 06:37 38.73521 57.25153 37037 ft 525 kts 111°
2026-04-26 06:37 38.71055 57.33853 37041 ft 524 kts 111°
2026-04-26 06:38 38.68569 57.42591 37274 ft 521 kts 111°
2026-04-26 06:38 38.67334 57.46919 37045 ft 521 kts 111°
2026-04-26 06:38 38.66091 57.51270 37038 ft 521 kts 111°
2026-04-26 06:39 38.63611 57.59930 37039 ft 522 kts 111°
2026-04-26 06:39 38.61095 57.68602 37029 ft 520 kts 114°
2026-04-26 06:40 38.58146 57.77021 37038 ft 521 kts 116°
2026-04-26 06:40 38.55186 57.85360 37040 ft 519 kts 116°
2026-04-26 06:41 38.52217 57.93756 37048 ft 520 kts 116°
2026-04-26 06:41 38.49250 58.02152 37046 ft 520 kts 116°
2026-04-26 06:42 38.46283 58.10541 37051 ft 518 kts 116°
2026-04-26 06:42 38.43330 58.18876 37062 ft 519 kts 116°
2026-04-26 06:43 38.40345 58.27240 37052 ft 517 kts 118°
2026-04-26 06:43 38.36778 58.35132 37069 ft 516 kts 123°
2026-04-26 06:44 38.33113 58.42911 37068 ft 515 kts 123°
2026-04-26 06:44 38.29447 58.50677 37068 ft 513 kts 123°
2026-04-26 06:45 38.25782 58.58422 37071 ft 513 kts 123°
2026-04-26 06:45 38.22083 58.66224 37071 ft 515 kts 124°
2026-04-26 06:46 38.18408 58.73959 37061 ft 513 kts 124°
2026-04-26 06:46 38.14718 58.81706 37064 ft 513 kts 124°
2026-04-26 06:47 38.11041 58.89407 37062 ft 514 kts 124°
2026-04-26 06:47 38.07344 58.97134 37054 ft 512 kts 124°
2026-04-26 06:48 38.03638 59.04861 37049 ft 514 kts 124°
2026-04-26 06:48 37.99922 59.12589 37041 ft 513 kts 124°
2026-04-26 06:49 37.96227 59.20256 37046 ft 515 kts 124°
2026-04-26 06:49 37.92499 59.27973 37045 ft 512 kts 124°
2026-04-26 06:50 37.88720 59.35564 37044 ft 511 kts 129°
2026-04-26 06:50 37.84482 59.42690 37046 ft 507 kts 130°
2026-04-26 06:51 37.80199 59.49803 37047 ft 506 kts 130°
2026-04-26 06:51 37.73808 59.60392 37050 ft 506 kts 130°
2026-04-26 06:52 37.69514 59.67490 37043 ft 507 kts 131°
2026-04-26 06:52 37.65250 59.74525 37040 ft 506 kts 131°
2026-04-26 06:53 37.60977 59.81560 37036 ft 507 kts 131°
2026-04-26 06:53 37.56698 59.88590 37037 ft 508 kts 131°
2026-04-26 06:54 37.52401 59.95634 37037 ft 507 kts 131°
2026-04-26 06:54 37.48133 60.02618 37037 ft 508 kts 131°
2026-04-26 06:55 37.43829 60.09644 37043 ft 507 kts 131°
2026-04-26 06:55 37.39531 60.16647 37040 ft 505 kts 131°
2026-04-26 06:56 37.35227 60.23642 37039 ft 508 kts 131°
2026-04-26 06:56 37.30899 60.30663 37043 ft 508 kts 131°
2026-04-26 06:57 37.26585 60.37647 37039 ft 511 kts 131°
2026-04-26 06:57 37.22239 60.44669 37044 ft 510 kts 131°
2026-04-26 06:58 37.17891 60.51677 37042 ft 510 kts 131°
2026-04-26 06:58 37.13553 60.58657 37046 ft 511 kts 131°
2026-04-26 06:59 37.09175 60.65684 37043 ft 510 kts 133°
2026-04-26 06:59 37.04823 60.72656 37034 ft 512 kts 133°
2026-04-26 07:00 37.00465 60.79624 37037 ft 511 kts 133°
2026-04-26 07:00 36.96125 60.86637 37030 ft 512 kts 130°
2026-04-26 07:01 36.92048 60.93948 37036 ft 515 kts 129°
2026-04-26 07:01 36.87962 61.01271 37036 ft 516 kts 129°
2026-04-26 07:02 36.83844 61.08608 37041 ft 513 kts 129°
2026-04-26 07:02 36.79748 61.15874 37040 ft 515 kts 130°
2026-04-26 07:03 36.75629 61.23158 37040 ft 514 kts 129°
2026-04-26 07:03 36.71488 61.30460 37038 ft 517 kts 129°
2026-04-26 07:04 36.67376 61.37696 37039 ft 512 kts 129°
2026-04-26 07:04 36.63244 61.44946 37039 ft 515 kts 130°
2026-04-26 07:05 36.59065 61.52152 37043 ft 517 kts 130°
2026-04-26 07:05 36.54838 61.59347 37043 ft 515 kts 130°
2026-04-26 07:06 36.50621 61.66517 37037 ft 514 kts 131°
2026-04-26 07:06 36.46429 61.73632 37035 ft 516 kts 131°
2026-04-26 07:07 36.42171 61.80846 37035 ft 516 kts 131°
2026-04-26 07:07 36.37952 61.87981 37040 ft 515 kts 131°
2026-04-26 07:08 36.33714 61.95130 37038 ft 518 kts 131°
2026-04-26 07:08 36.29457 62.02302 37035 ft 515 kts 131°
2026-04-26 07:09 36.25185 62.09480 37034 ft 517 kts 131°
2026-04-26 07:09 36.20942 62.16596 37034 ft 516 kts 131°
2026-04-26 07:11 36.10306 62.34369 37036 ft 518 kts 131°
2026-04-26 07:11 36.06007 62.41528 37036 ft 513 kts 131°
2026-04-26 07:12 36.01769 62.48569 37037 ft 515 kts 131°
2026-04-26 07:12 35.97491 62.55663 37034 ft 514 kts 131°
2026-04-26 07:13 35.93323 62.62560 37043 ft 514 kts 131°
2026-04-26 07:13 35.89064 62.69594 37038 ft 513 kts 132°
2026-04-26 07:14 35.84794 62.76631 37041 ft 512 kts 132°
2026-04-26 07:14 35.80543 62.83622 37053 ft 511 kts 131°
2026-04-26 07:15 35.76299 62.90589 37054 ft 511 kts 132°
2026-04-26 07:15 35.72026 62.97586 37051 ft 514 kts 131°
2026-04-26 07:16 35.67783 63.04524 37054 ft 510 kts 131°
2026-04-26 07:16 35.63501 63.11509 37057 ft 512 kts 131°
2026-04-26 07:17 35.59234 63.18457 37068 ft 512 kts 131°
2026-04-26 07:17 35.54895 63.25443 37065 ft 510 kts 132°
2026-04-26 07:18 35.50573 63.32337 37086 ft 513 kts 131°
2026-04-26 07:18 35.46248 63.39229 37081 ft 509 kts 131°
2026-04-26 07:19 35.41927 63.46099 37101 ft 512 kts 131°
2026-04-26 07:19 35.37587 63.52988 37107 ft 511 kts 131°
2026-04-26 07:20 35.33264 63.59837 37108 ft 513 kts 131°
2026-04-26 07:20 35.28908 63.66731 37104 ft 510 kts 132°
2026-04-26 07:21 35.24591 63.73588 37100 ft 510 kts 131°
2026-04-26 07:21 35.20292 63.80405 37122 ft 509 kts 131°
2026-04-26 07:22 35.15951 63.87274 37125 ft 509 kts 131°
2026-04-26 07:22 35.11621 63.94112 37140 ft 512 kts 131°
2026-04-26 07:23 35.07311 64.00906 37137 ft 508 kts 131°
2026-04-26 07:23 35.02985 64.07709 37150 ft 509 kts 131°
2026-04-26 07:24 34.98639 64.14532 37161 ft 508 kts 131°
2026-04-26 07:24 34.94320 64.21300 37143 ft 507 kts 131°
2026-04-26 07:25 34.90011 64.28038 37187 ft 507 kts 131°
2026-04-26 07:25 34.85661 64.34827 37208 ft 508 kts 131°
2026-04-26 07:26 34.81328 64.41578 37227 ft 506 kts 131°
2026-04-26 07:26 34.76966 64.48359 37240 ft 508 kts 131°
2026-04-26 07:27 34.72639 64.55076 37248 ft 505 kts 131°
2026-04-26 07:27 34.68315 64.61771 37240 ft 505 kts 131°
2026-04-26 07:28 34.63967 64.68494 37247 ft 506 kts 131°
2026-04-26 07:28 34.59626 64.75192 37260 ft 505 kts 131°
2026-04-26 07:29 34.55312 64.81838 37261 ft 504 kts 131°
2026-04-26 07:29 34.50980 64.88496 37274 ft 504 kts 131°
2026-04-26 07:30 34.46658 64.95119 37279 ft 502 kts 131°
2026-04-26 07:30 34.42334 65.01723 37292 ft 503 kts 131°
2026-04-26 07:31 34.37974 65.08371 37277 ft 502 kts 131°
2026-04-26 07:31 34.33651 65.14951 37274 ft 502 kts 131°
2026-04-26 07:32 34.29300 65.21560 37275 ft 503 kts 131°
2026-04-26 07:32 34.24942 65.28170 37278 ft 504 kts 131°
2026-04-26 07:33 34.20612 65.34725 37281 ft 501 kts 131°
2026-04-26 07:33 34.16273 65.41280 37289 ft 503 kts 131°
2026-04-26 07:34 34.11888 65.47894 37304 ft 504 kts 131°
2026-04-26 07:34 34.07518 65.54472 37293 ft 502 kts 132°
2026-04-26 07:35 34.03150 65.61050 37302 ft 503 kts 131°
2026-04-26 07:35 33.98795 65.67601 37299 ft 502 kts 132°
2026-04-26 07:36 33.94416 65.74176 37302 ft 503 kts 132°
2026-04-26 07:36 33.90050 65.80720 37295 ft 502 kts 132°
2026-04-26 07:37 33.85651 65.87300 37298 ft 503 kts 132°
2026-04-26 07:37 33.81273 65.93838 37299 ft 502 kts 133°
2026-04-26 07:38 33.76912 66.00337 37302 ft 501 kts 133°
2026-04-26 07:38 33.72547 66.06831 37298 ft 504 kts 132°
2026-04-26 07:39 33.68146 66.13368 37312 ft 502 kts 133°
2026-04-26 07:39 33.63764 66.19864 37299 ft 504 kts 133°
2026-04-26 07:40 33.59354 66.26390 37277 ft 503 kts 133°
2026-04-26 07:40 33.54960 66.32880 37288 ft 502 kts 133°
2026-04-26 07:41 33.50561 66.39365 37290 ft 502 kts 133°
2026-04-26 07:41 33.46152 66.45855 37289 ft 502 kts 133°
2026-04-26 07:42 33.41746 66.52304 37305 ft 502 kts 133°
2026-04-26 07:42 33.37331 66.58749 37341 ft 504 kts 133°
2026-04-26 07:43 33.32911 66.65189 37353 ft 502 kts 133°
2026-04-26 07:43 33.28478 66.71639 37346 ft 504 kts 133°
2026-04-26 07:44 33.24050 66.78069 37356 ft 503 kts 133°
2026-04-26 07:44 33.19606 66.84512 37367 ft 502 kts 133°
2026-04-26 07:45 33.15200 66.90889 37371 ft 501 kts 133°
2026-04-26 07:45 33.10770 66.97289 37393 ft 502 kts 133°
2026-04-26 07:46 33.06346 67.03669 37395 ft 500 kts 133°
2026-04-26 07:46 33.01904 67.10063 37367 ft 502 kts 133°
2026-04-26 07:47 32.97468 67.16438 37382 ft 503 kts 133°
2026-04-26 07:47 32.92982 67.22875 37346 ft 502 kts 133°
2026-04-26 07:48 32.88540 67.29237 37319 ft 503 kts 133°
2026-04-26 07:48 32.84049 67.35657 37304 ft 504 kts 133°
2026-04-26 07:49 32.79593 67.42017 37285 ft 503 kts 133°
2026-04-26 07:49 32.75090 67.48322 37289 ft 503 kts 135°
2026-04-26 07:50 32.68149 67.57610 37233 ft 502 kts 135°
2026-04-26 07:50 32.63495 67.63838 37236 ft 503 kts 135°
2026-04-26 07:51 32.58870 67.70023 37212 ft 502 kts 135°
2026-04-26 07:51 32.54234 67.76216 37199 ft 504 kts 135°
2026-04-26 07:52 32.49600 67.82403 37201 ft 503 kts 135°
2026-04-26 07:52 32.45135 67.88802 37194 ft 507 kts 133°
2026-04-26 07:53 32.40682 67.95236 37179 ft 502 kts 133°
2026-04-26 07:53 32.36238 68.01627 37195 ft 505 kts 133°
2026-04-26 07:54 32.31803 68.07985 37194 ft 505 kts 133°
2026-04-26 07:54 32.27349 68.14355 37210 ft 504 kts 133°
2026-04-26 07:55 32.22876 68.20737 37220 ft 504 kts 133°
2026-04-26 07:55 32.18390 68.27125 37215 ft 505 kts 133°
2026-04-26 07:56 32.13908 68.33498 37223 ft 504 kts 133°
2026-04-26 07:56 32.09427 68.39857 37210 ft 507 kts 133°
2026-04-26 07:57 32.04943 68.46210 37206 ft 505 kts 133°
2026-04-26 07:57 32.00453 68.52559 37194 ft 506 kts 133°
2026-04-26 07:58 31.95962 68.58900 37184 ft 506 kts 133°
2026-04-26 07:58 31.91472 68.65228 37171 ft 506 kts 133°
2026-04-26 07:59 31.86966 68.71568 37154 ft 505 kts 133°
2026-04-26 07:59 31.82438 68.77929 37149 ft 506 kts 133°
2026-04-26 08:00 31.77961 68.84208 37136 ft 505 kts 133°
2026-04-26 08:00 31.73444 68.90533 37120 ft 505 kts 133°
2026-04-26 08:01 31.68926 68.96847 37109 ft 506 kts 133°
2026-04-26 08:01 31.64480 69.03163 37110 ft 505 kts 131°
2026-04-26 08:02 31.60106 69.09700 37114 ft 506 kts 131°
2026-04-26 08:02 31.55776 69.16151 37090 ft 506 kts 131°
2026-04-26 08:03 31.51434 69.22597 37076 ft 507 kts 131°
2026-04-26 08:03 31.47067 69.29063 37049 ft 506 kts 131°
2026-04-26 08:04 31.42704 69.35509 37026 ft 507 kts 131°
2026-04-26 08:04 31.38318 69.41978 37022 ft 506 kts 131°
2026-04-26 08:05 31.33492 69.47958 37038 ft 503 kts 143°
2026-04-26 08:05 31.28107 69.53106 37059 ft 501 kts 144°
2026-04-26 08:06 31.22682 69.58248 37067 ft 501 kts 144°
2026-04-26 08:06 31.17253 69.63387 37055 ft 503 kts 143°
2026-04-26 08:07 31.11845 69.68497 37052 ft 502 kts 144°
2026-04-26 08:07 31.06436 69.73603 37058 ft 502 kts 144°
2026-04-26 08:08 31.00986 69.78739 37073 ft 502 kts 144°
2026-04-26 08:08 30.95547 69.83857 37063 ft 504 kts 144°
2026-04-26 08:09 30.90099 69.88975 37057 ft 503 kts 144°
2026-04-26 08:09 30.84646 69.94091 37058 ft 504 kts 144°
2026-04-26 08:10 30.79236 69.99159 37063 ft 504 kts 144°
2026-04-26 08:10 30.73768 70.04273 37056 ft 505 kts 144°
2026-04-26 08:11 30.68311 70.09370 36963 ft 504 kts 143°
2026-04-26 08:11 30.62846 70.14467 36928 ft 503 kts 144°
2026-04-26 08:12 30.57403 70.19535 36856 ft 503 kts 143°
2026-04-26 08:12 30.51945 70.24609 36794 ft 504 kts 143°
2026-04-26 08:13 30.46494 70.29671 36759 ft 503 kts 143°
2026-04-26 08:13 30.41051 70.34717 36755 ft 503 kts 143°
2026-04-26 08:14 30.35579 70.39781 36734 ft 502 kts 143°
2026-04-26 08:14 30.30118 70.44828 36683 ft 504 kts 143°
2026-04-26 08:15 30.24636 70.49888 36629 ft 503 kts 143°
2026-04-26 08:15 30.19192 70.54956 36620 ft 502 kts 143°
2026-04-26 08:16 30.13781 70.60088 36585 ft 504 kts 142°
2026-04-26 08:16 30.08400 70.65181 36587 ft 503 kts 143°
2026-04-26 08:17 30.02982 70.70299 36574 ft 502 kts 143°
2026-04-26 08:17 29.97582 70.75389 36552 ft 503 kts 143°
2026-04-26 08:18 29.92171 70.80482 36545 ft 502 kts 143°
2026-04-26 08:18 29.86742 70.85583 36547 ft 503 kts 143°
2026-04-26 08:19 29.81327 70.90665 36544 ft 502 kts 143°
2026-04-26 08:19 29.75926 70.95725 36538 ft 502 kts 143°
2026-04-26 08:20 29.70507 71.00795 36530 ft 501 kts 143°
2026-04-26 08:20 29.65169 71.05926 36530 ft 502 kts 140°
2026-04-26 08:21 29.59976 71.11276 36526 ft 502 kts 140°
2026-04-26 08:21 29.54760 71.16630 36523 ft 502 kts 140°
2026-04-26 08:22 29.49573 71.21931 36516 ft 503 kts 140°
2026-04-26 08:22 29.44352 71.27254 36517 ft 502 kts 140°
2026-04-26 08:23 29.39127 71.32567 36512 ft 503 kts 140°
2026-04-26 08:23 29.33878 71.37895 36511 ft 502 kts 140°
2026-04-26 08:24 29.28670 71.43175 36507 ft 502 kts 140°
2026-04-26 08:24 29.23466 71.48500 36512 ft 502 kts 140°
2026-04-26 08:25 29.18275 71.53808 36510 ft 502 kts 140°
2026-04-26 08:25 29.13073 71.59118 36516 ft 502 kts 140°
2026-04-26 08:26 29.07857 71.64434 36516 ft 501 kts 140°
2026-04-26 08:26 29.02658 71.69724 36510 ft 501 kts 141°
2026-04-26 08:27 28.97451 71.75015 36513 ft 501 kts 141°
2026-04-26 08:27 28.92239 71.80302 36511 ft 501 kts 141°
2026-04-26 08:28 28.87065 71.85544 36511 ft 501 kts 141°
2026-04-26 08:28 28.81836 71.90834 36512 ft 501 kts 140°
2026-04-26 08:29 28.76626 71.96098 36517 ft 500 kts 141°
2026-04-26 08:29 28.71446 72.01324 36525 ft 500 kts 141°
2026-04-26 08:30 28.66243 72.06567 36533 ft 499 kts 141°
2026-04-26 08:30 28.61010 72.11831 36535 ft 501 kts 140°
2026-04-26 08:31 28.55818 72.17048 36539 ft 500 kts 141°
2026-04-26 08:31 28.50911 72.22713 36523 ft 506 kts 128°
2026-04-26 08:32 28.47574 72.29730 36525 ft 509 kts 110°
2026-04-26 08:32 28.46018 72.37531 36523 ft 509 kts 99°
2026-04-26 08:33 28.44885 72.45441 36521 ft 508 kts 99°
2026-04-26 08:33 28.43721 72.53377 36524 ft 509 kts 99°
2026-04-26 08:34 28.42539 72.61289 36520 ft 509 kts 99°
2026-04-26 08:34 28.41351 72.69154 36522 ft 509 kts 99°
2026-04-26 08:35 28.40148 72.77052 36530 ft 509 kts 99°
2026-04-26 08:35 28.38940 72.84940 36526 ft 510 kts 99°
2026-04-26 08:36 28.37721 72.92851 36527 ft 509 kts 99°
2026-04-26 08:36 28.36497 73.00763 36527 ft 510 kts 99°
2026-04-26 08:37 28.35274 73.08634 36531 ft 511 kts 99°
2026-04-26 08:37 28.34034 73.16574 36533 ft 511 kts 99°
2026-04-26 08:38 28.32795 73.24483 36534 ft 511 kts 99°
2026-04-26 08:38 28.31549 73.32407 36535 ft 510 kts 99°
2026-04-26 08:39 28.30302 73.40305 36536 ft 510 kts 99°
2026-04-26 08:39 28.29054 73.48179 36546 ft 510 kts 99°
2026-04-26 08:40 28.27792 73.56104 36545 ft 510 kts 99°
2026-04-26 08:40 28.26530 73.64008 36555 ft 511 kts 99°
2026-04-26 08:41 28.25258 73.71938 36546 ft 511 kts 100°
2026-04-26 08:41 28.23990 73.79811 36552 ft 511 kts 100°
2026-04-26 08:42 28.22712 73.87724 36562 ft 512 kts 100°
2026-04-26 08:42 28.21431 73.95618 36565 ft 511 kts 100°
2026-04-26 08:43 28.20138 74.03558 36565 ft 511 kts 100°
2026-04-26 08:43 28.19088 74.11485 36561 ft 510 kts 91°
2026-04-26 08:44 28.19455 74.19448 36563 ft 509 kts 84°
2026-04-26 08:44 28.20033 74.27424 36562 ft 509 kts 84°
2026-04-26 08:45 28.20602 74.35407 36565 ft 510 kts 84°
2026-04-26 08:45 28.21159 74.43366 36568 ft 510 kts 84°
2026-04-26 08:46 28.21713 74.51386 36573 ft 510 kts 84°
2026-04-26 08:46 28.22261 74.59390 36573 ft 510 kts 84°
2026-04-26 08:47 28.22801 74.67373 36563 ft 510 kts 84°
2026-04-26 08:47 28.23338 74.75369 36561 ft 510 kts 84°
2026-04-26 08:48 28.23871 74.83392 36566 ft 509 kts 84°
2026-04-26 08:48 28.24397 74.91382 36570 ft 509 kts 84°
2026-04-26 08:49 28.24921 74.99418 36567 ft 510 kts 84°
2026-04-26 08:49 28.25439 75.07428 36566 ft 511 kts 84°
2026-04-26 08:50 28.25950 75.15402 36571 ft 511 kts 84°
2026-04-26 08:50 28.26462 75.23467 36573 ft 511 kts 84°
2026-04-26 08:51 28.27215 75.35469 36573 ft 511 kts 84°
2026-04-26 08:52 28.27713 75.43504 36575 ft 511 kts 84°
2026-04-26 08:52 28.28205 75.51525 36578 ft 510 kts 84°
2026-04-26 08:53 28.28694 75.59567 36575 ft 510 kts 84°
2026-04-26 08:53 28.29178 75.67596 36564 ft 511 kts 84°
2026-04-26 08:54 28.29656 75.75599 36558 ft 511 kts 84°
2026-04-26 08:54 28.30128 75.83607 36556 ft 511 kts 84°
2026-04-26 08:55 28.30598 75.91647 36564 ft 512 kts 84°
2026-04-26 08:55 28.31061 75.99642 36557 ft 510 kts 84°
2026-04-26 08:56 28.31520 76.07658 36559 ft 511 kts 84°
2026-04-26 08:56 28.31977 76.15728 36555 ft 511 kts 84°
2026-04-26 08:57 28.32427 76.23746 36549 ft 511 kts 84°
2026-04-26 08:57 28.32872 76.31762 36535 ft 512 kts 84°
2026-04-26 08:58 28.33314 76.39803 36528 ft 513 kts 84°
2026-04-26 08:58 28.33753 76.47876 36526 ft 513 kts 84°
2026-04-26 08:59 28.34184 76.55907 36517 ft 514 kts 84°
2026-04-26 08:59 28.34405 76.63982 36523 ft 515 kts 92°
2026-04-26 09:00 28.32882 76.71903 36504 ft 518 kts 109°
2026-04-26 09:00 28.30373 76.79543 36510 ft 517 kts 110°
2026-04-26 09:01 28.27825 76.87151 36507 ft 518 kts 110°
2026-04-26 09:01 28.25249 76.94801 36511 ft 517 kts 110°
2026-04-26 09:02 28.22681 77.02399 36505 ft 516 kts 110°
2026-04-26 09:02 28.20110 77.09987 36506 ft 517 kts 111°
2026-04-26 09:03 28.17528 77.17584 36512 ft 518 kts 111°
2026-04-26 09:03 28.14955 77.25137 36502 ft 518 kts 111°
2026-04-26 09:04 28.12364 77.32725 36503 ft 518 kts 111°
2026-04-26 09:04 28.09761 77.40332 36495 ft 519 kts 111°
2026-04-26 09:05 28.07166 77.47899 36509 ft 517 kts 111°
2026-04-26 09:05 28.04563 77.55474 36502 ft 517 kts 111°
2026-04-26 09:06 28.01948 77.63068 36505 ft 517 kts 111°
2026-04-26 09:06 27.99339 77.70628 36490 ft 517 kts 111°
2026-04-26 09:07 27.96711 77.78229 36478 ft 517 kts 111°
2026-04-26 09:07 27.94099 77.85767 36481 ft 516 kts 111°
2026-04-26 09:08 27.91470 77.93340 36475 ft 516 kts 111°
2026-04-26 09:08 27.88862 78.00834 36482 ft 516 kts 111°
2026-04-26 09:09 27.86247 78.08334 36483 ft 515 kts 111°
2026-04-26 09:09 27.83596 78.15924 36477 ft 516 kts 111°
2026-04-26 09:10 27.80871 78.23429 36460 ft 516 kts 113°
2026-04-26 09:10 27.78069 78.30863 36464 ft 515 kts 113°
2026-04-26 09:11 27.75275 78.38278 36460 ft 516 kts 113°
2026-04-26 09:11 27.72462 78.45739 36463 ft 517 kts 113°
2026-04-26 09:12 27.69647 78.53197 36465 ft 518 kts 113°
2026-04-26 09:12 27.66845 78.60610 36464 ft 517 kts 113°
2026-04-26 09:13 27.64020 78.68072 36454 ft 515 kts 114°
2026-04-26 09:13 27.61215 78.75468 36454 ft 517 kts 114°
2026-04-26 09:14 27.58388 78.82909 36450 ft 516 kts 114°
2026-04-26 09:14 27.55560 78.90337 36454 ft 515 kts 114°
2026-04-26 09:15 27.52738 78.97738 36455 ft 516 kts 114°
2026-04-26 09:15 27.49920 79.05111 36451 ft 515 kts 114°
2026-04-26 09:16 27.47081 79.12527 36447 ft 517 kts 114°
2026-04-26 09:16 27.44243 79.19926 36437 ft 516 kts 114°
2026-04-26 09:17 27.41408 79.27303 36434 ft 517 kts 114°
2026-04-26 09:17 27.38551 79.34723 36432 ft 516 kts 114°
2026-04-26 09:18 27.35706 79.42100 36430 ft 517 kts 114°
2026-04-26 09:18 27.32858 79.49461 36431 ft 516 kts 114°
2026-04-26 09:19 27.29899 79.56853 36430 ft 517 kts 115°
2026-04-26 09:19 27.26956 79.64172 36431 ft 517 kts 115°
2026-04-26 09:20 27.24007 79.71501 36427 ft 517 kts 115°
2026-04-26 09:20 27.21044 79.78854 36423 ft 516 kts 115°
2026-04-26 09:21 27.18090 79.86174 36421 ft 516 kts 115°
2026-04-26 09:21 27.15115 79.93537 36426 ft 517 kts 115°
2026-04-26 09:22 27.12150 80.00859 36428 ft 517 kts 115°
2026-04-26 09:22 27.09194 80.08147 36423 ft 516 kts 115°
2026-04-26 09:23 27.06218 80.15472 36415 ft 516 kts 115°
2026-04-26 09:23 27.03252 80.22759 36413 ft 517 kts 115°
2026-04-26 09:24 27.00268 80.30076 36417 ft 518 kts 115°
2026-04-26 09:24 26.97281 80.37389 36420 ft 517 kts 115°
2026-04-26 09:25 26.94285 80.44710 36424 ft 517 kts 115°
2026-04-26 09:25 26.91306 80.51976 36428 ft 516 kts 115°
2026-04-26 09:26 26.88289 80.59322 36428 ft 518 kts 115°
2026-04-26 09:26 26.85295 80.66600 36424 ft 518 kts 115°
2026-04-26 09:27 26.82293 80.73883 36423 ft 516 kts 115°
2026-04-26 09:27 26.79271 80.81203 36429 ft 517 kts 116°
2026-04-26 09:28 26.76208 80.88448 36425 ft 516 kts 120°
2026-04-26 09:28 26.72170 80.95110 36425 ft 515 kts 127°
2026-04-26 09:29 26.67982 81.01553 36420 ft 515 kts 127°
2026-04-26 09:29 26.63778 81.08005 36408 ft 515 kts 127°
2026-04-26 09:30 26.59556 81.14473 36410 ft 515 kts 127°
2026-04-26 09:30 26.55341 81.20924 36404 ft 515 kts 127°
2026-04-26 09:31 26.51121 81.27370 36402 ft 515 kts 128°
2026-04-26 09:31 26.46893 81.33819 36407 ft 516 kts 128°
2026-04-26 09:32 26.42659 81.40269 36407 ft 517 kts 127°
2026-04-26 09:32 26.38393 81.46758 36413 ft 518 kts 128°
2026-04-26 09:33 26.34128 81.53236 36408 ft 517 kts 127°
2026-04-26 09:33 26.29885 81.59673 36412 ft 518 kts 127°
2026-04-26 09:34 26.25611 81.66146 36410 ft 519 kts 128°
2026-04-26 09:34 26.21338 81.72608 36403 ft 517 kts 128°
2026-04-26 09:35 26.17085 81.79032 36399 ft 517 kts 128°
2026-04-26 09:35 26.12811 81.85480 36392 ft 519 kts 128°
2026-04-26 09:36 26.08544 81.91906 36386 ft 519 kts 128°
2026-04-26 09:36 26.04235 81.98386 36383 ft 519 kts 128°
2026-04-26 09:37 25.99951 82.04822 36384 ft 520 kts 128°
2026-04-26 09:37 25.95629 82.11303 36398 ft 519 kts 128°
2026-04-26 09:38 25.91340 82.17727 36404 ft 521 kts 128°
2026-04-26 09:38 25.87004 82.24213 36395 ft 520 kts 128°
2026-04-26 09:39 25.82700 82.30641 36405 ft 520 kts 128°
2026-04-26 09:39 25.78393 82.37065 36405 ft 519 kts 128°
2026-04-26 09:40 25.74078 82.43491 36406 ft 520 kts 128°
2026-04-26 09:40 25.69764 82.49908 36406 ft 520 kts 128°
2026-04-26 09:41 25.65422 82.56358 36404 ft 518 kts 128°
2026-04-26 09:41 25.61104 82.62762 36402 ft 520 kts 128°
2026-04-26 09:42 25.56784 82.69162 36386 ft 521 kts 128°
2026-04-26 09:42 25.52450 82.75574 36389 ft 520 kts 128°
2026-04-26 09:43 25.48145 82.81934 36392 ft 519 kts 128°
2026-04-26 09:43 25.43766 82.88285 36393 ft 519 kts 132°
2026-04-26 09:44 25.39072 82.94350 36396 ft 518 kts 133°
2026-04-26 09:44 25.34370 83.00411 36396 ft 519 kts 133°
2026-04-26 09:45 25.29672 83.06484 36398 ft 516 kts 132°
2026-04-26 09:45 25.24987 83.12545 36396 ft 519 kts 132°
2026-04-26 09:46 25.20287 83.18626 36397 ft 518 kts 133°
2026-04-26 09:46 25.15631 83.24647 36401 ft 517 kts 133°
2026-04-26 09:47 25.10950 83.30694 36401 ft 518 kts 132°
2026-04-26 09:47 25.06286 83.36713 36410 ft 520 kts 133°
2026-04-26 09:48 25.01595 83.42759 36417 ft 518 kts 133°
2026-04-26 09:48 24.96923 83.48774 36425 ft 517 kts 133°
2026-04-26 09:49 24.92251 83.54781 36437 ft 518 kts 133°
2026-04-26 09:49 24.87548 83.60821 36440 ft 521 kts 133°
2026-04-26 09:50 24.82829 83.66874 36416 ft 518 kts 133°
2026-04-26 09:50 24.78240 83.72751 36418 ft 522 kts 133°
2026-04-26 09:51 24.73524 83.78784 36424 ft 522 kts 134°
2026-04-26 09:51 24.68793 83.84830 36443 ft 522 kts 133°
2026-04-26 09:52 24.64058 83.90872 36459 ft 525 kts 134°
2026-04-26 09:52 24.56912 83.99976 36456 ft 524 kts 134°
2026-04-26 09:53 24.52146 84.06040 36438 ft 525 kts 134°
2026-04-26 09:53 24.47389 84.12083 36436 ft 525 kts 134°
2026-04-26 09:54 24.42616 84.18140 36456 ft 526 kts 134°
2026-04-26 09:54 24.37818 84.24219 36476 ft 525 kts 135°
2026-04-26 09:55 24.33023 84.30288 36488 ft 526 kts 135°
2026-04-26 09:55 24.28231 84.36346 36496 ft 528 kts 135°
2026-04-26 09:56 24.23412 84.42429 36500 ft 529 kts 135°
2026-04-26 09:56 24.18598 84.48489 36493 ft 526 kts 135°
2026-04-26 09:57 24.13771 84.54523 36501 ft 531 kts 135°
2026-04-26 09:57 24.08927 84.60574 36517 ft 530 kts 135°
2026-04-26 09:58 24.04061 84.66647 36518 ft 530 kts 136°
2026-04-26 09:58 23.99214 84.72687 36533 ft 530 kts 136°
2026-04-26 09:59 23.94337 84.78756 36559 ft 535 kts 136°
2026-04-26 09:59 23.89456 84.84826 36570 ft 532 kts 136°
2026-04-26 10:00 23.84541 84.90928 36577 ft 532 kts 136°
2026-04-26 10:00 23.79667 84.96975 36587 ft 532 kts 137°
2026-04-26 10:01 23.74765 85.03046 36584 ft 532 kts 137°
2026-04-26 10:01 23.69894 85.09072 36601 ft 535 kts 136°
2026-04-26 10:02 23.64955 85.15174 36611 ft 533 kts 137°
2026-04-26 10:02 23.60089 85.21181 36612 ft 532 kts 137°
2026-04-26 10:03 23.55129 85.27293 36609 ft 534 kts 137°
2026-04-26 10:03 23.50243 85.33308 36605 ft 534 kts 137°
2026-04-26 10:04 23.45285 85.39402 36606 ft 539 kts 136°
2026-04-26 10:04 23.40345 85.45471 36600 ft 536 kts 137°
2026-04-26 10:05 23.35421 85.51511 36588 ft 536 kts 137°
2026-04-26 10:05 23.30473 85.57574 36569 ft 534 kts 137°
2026-04-26 10:06 23.25481 85.63678 36540 ft 539 kts 137°
2026-04-26 10:06 23.20550 85.69707 36500 ft 536 kts 138°
2026-04-26 10:07 23.15559 85.75798 36470 ft 539 kts 138°
2026-04-26 10:07 23.10574 85.81876 36463 ft 539 kts 138°
2026-04-26 10:08 23.05625 85.87902 36461 ft 540 kts 137°
2026-04-26 10:08 23.00608 85.94005 36458 ft 537 kts 138°
2026-04-26 10:09 22.95653 86.00025 36459 ft 536 kts 138°
2026-04-26 10:09 22.90671 86.06068 36464 ft 537 kts 138°
2026-04-26 10:10 22.85701 86.12092 36462 ft 535 kts 138°
2026-04-26 10:10 22.80829 86.18232 36456 ft 541 kts 131°
2026-04-26 10:11 22.76622 86.25020 36456 ft 543 kts 129°
2026-04-26 10:11 22.72467 86.31834 36464 ft 542 kts 129°
2026-04-26 10:12 22.68310 86.38634 36472 ft 543 kts 129°
2026-04-26 10:12 22.64128 86.45455 36471 ft 545 kts 129°
2026-04-26 10:13 22.59979 86.52216 36474 ft 541 kts 129°
2026-04-26 10:13 22.55827 86.58966 36467 ft 542 kts 128°
2026-04-26 10:14 22.51654 86.65743 36460 ft 544 kts 129°
2026-04-26 10:14 22.47460 86.72543 36436 ft 541 kts 129°
2026-04-26 10:15 22.43314 86.79259 36439 ft 538 kts 129°
2026-04-26 10:15 22.39131 86.86020 36440 ft 541 kts 129°
2026-04-26 10:16 22.34993 86.92705 36444 ft 538 kts 129°
2026-04-26 10:16 22.30823 86.99431 36442 ft 538 kts 129°
2026-04-26 10:17 22.26654 87.06147 36448 ft 538 kts 129°
2026-04-26 10:17 22.22512 87.12813 36454 ft 537 kts 129°
2026-04-26 10:18 22.18354 87.19493 36465 ft 538 kts 129°
2026-04-26 10:18 22.14239 87.26248 36470 ft 542 kts 125°
2026-04-26 10:19 22.10619 87.33379 36474 ft 542 kts 123°
2026-04-26 10:19 22.07043 87.40502 36484 ft 543 kts 123°
2026-04-26 10:20 22.04046 87.46460 36488 ft 542 kts 123°
2026-04-26 10:20 21.99843 87.54791 36501 ft 542 kts 123°
2026-04-26 10:21 21.96242 87.61914 36508 ft 543 kts 123°
2026-04-26 10:21 21.92644 87.69022 36501 ft 543 kts 123°
2026-04-26 10:22 21.89031 87.76147 36505 ft 541 kts 123°
2026-04-26 10:22 21.85421 87.83255 36523 ft 542 kts 123°
2026-04-26 10:23 21.81835 87.90307 36541 ft 541 kts 123°
2026-04-26 10:23 21.78214 87.97418 36541 ft 540 kts 123°
2026-04-26 10:24 21.74613 88.04481 36545 ft 539 kts 123°
2026-04-26 10:24 21.71018 88.11522 36545 ft 539 kts 123°
2026-04-26 10:25 21.67411 88.18578 36548 ft 538 kts 123°
2026-04-26 10:25 21.63802 88.25626 36551 ft 540 kts 123°
2026-04-26 10:26 21.60194 88.32664 36554 ft 539 kts 123°
2026-04-26 10:26 21.56566 88.39732 36553 ft 540 kts 123°
2026-04-26 10:27 21.52973 88.46722 36557 ft 540 kts 123°
2026-04-26 10:27 21.49340 88.53783 36563 ft 538 kts 123°
2026-04-26 10:28 21.45708 88.60829 36561 ft 539 kts 122°
2026-04-26 10:28 21.42084 88.67852 36544 ft 540 kts 123°
2026-04-26 10:29 21.38433 88.74860 36550 ft 534 kts 126°
2026-04-26 10:29 21.33775 88.80905 36559 ft 523 kts 143°
2026-04-26 10:30 21.28372 88.86083 36564 ft 519 kts 144°
2026-04-26 10:30 21.22972 88.91181 36568 ft 521 kts 144°
2026-04-26 10:31 21.17542 88.96291 36571 ft 517 kts 144°
2026-04-26 10:31 21.12126 89.01377 36562 ft 518 kts 144°
2026-04-26 10:32 21.06700 89.06462 36563 ft 520 kts 144°
2026-04-26 10:32 21.01246 89.11569 36566 ft 517 kts 144°
2026-04-26 10:33 20.95839 89.16625 36568 ft 517 kts 144°
2026-04-26 10:33 20.90673 89.22028 36575 ft 526 kts 133°
2026-04-26 10:34 20.86268 89.28256 36579 ft 527 kts 131°
2026-04-26 10:34 20.81873 89.34553 36585 ft 526 kts 131°
2026-04-26 10:35 20.77485 89.40824 36584 ft 529 kts 131°
2026-04-26 10:35 20.73108 89.47072 36594 ft 528 kts 131°
2026-04-26 10:36 20.68724 89.53320 36597 ft 526 kts 131°
2026-04-26 10:36 20.64324 89.59582 36597 ft 527 kts 131°
2026-04-26 10:37 20.59939 89.65816 36591 ft 526 kts 132°
2026-04-26 10:37 20.55566 89.72026 36584 ft 525 kts 132°
2026-04-26 10:38 20.51177 89.78250 36583 ft 527 kts 131°
2026-04-26 10:38 20.46796 89.84459 36585 ft 523 kts 132°
2026-04-26 10:39 20.42404 89.90674 36593 ft 524 kts 131°
2026-04-26 10:39 20.38034 89.96853 36594 ft 524 kts 132°
2026-04-26 10:40 20.33660 90.03029 36598 ft 522 kts 131°
2026-04-26 10:40 20.29259 90.09238 36597 ft 523 kts 131°
2026-04-26 10:41 20.24901 90.15379 36601 ft 523 kts 131°
2026-04-26 10:41 20.20508 90.21564 36606 ft 523 kts 131°
2026-04-26 10:42 20.16134 90.27715 36608 ft 522 kts 131°
2026-04-26 10:42 20.11782 90.33830 36615 ft 522 kts 131°
2026-04-26 10:43 20.07396 90.39985 36611 ft 522 kts 131°
2026-04-26 10:43 20.03022 90.46115 36610 ft 521 kts 131°
2026-04-26 10:44 19.98672 90.52209 36609 ft 519 kts 131°
2026-04-26 10:44 19.94299 90.58324 36612 ft 520 kts 131°
2026-04-26 10:45 19.89896 90.64479 36611 ft 521 kts 131°
2026-04-26 10:45 19.85528 90.70577 36602 ft 521 kts 131°
2026-04-26 10:46 19.81148 90.76687 36606 ft 519 kts 132°
2026-04-26 10:46 19.76776 90.82778 36604 ft 520 kts 131°
2026-04-26 10:47 19.72411 90.88852 36602 ft 520 kts 131°
2026-04-26 10:47 19.68023 90.94954 36602 ft 520 kts 131°
2026-04-26 10:48 19.63628 91.01059 36602 ft 519 kts 131°
2026-04-26 10:48 19.59250 91.07134 36605 ft 518 kts 131°
2026-04-26 10:49 19.54871 91.13203 36607 ft 519 kts 131°
2026-04-26 10:49 19.50491 91.19270 36606 ft 519 kts 131°
2026-04-26 10:50 19.46843 91.24316 36610 ft 518 kts 131°
2026-04-26 10:50 19.41744 91.31364 36607 ft 518 kts 131°
2026-04-26 10:51 19.35187 91.40414 36618 ft 518 kts 131°
2026-04-26 10:52 19.30793 91.46471 36626 ft 518 kts 131°
2026-04-26 10:52 19.26400 91.52522 36630 ft 518 kts 131°
2026-04-26 10:53 19.22027 91.58540 36630 ft 518 kts 131°
2026-04-26 10:53 19.17616 91.64603 36634 ft 519 kts 131°
2026-04-26 10:54 19.11033 91.73639 36619 ft 519 kts 131°
2026-04-26 10:54 19.06643 91.79659 36619 ft 518 kts 131°
2026-04-26 10:55 19.02226 91.85710 36619 ft 518 kts 131°
2026-04-26 10:55 18.98575 91.90706 36620 ft 520 kts 131°
2026-04-26 10:56 18.93432 91.97738 36621 ft 519 kts 131°
2026-04-26 10:56 18.89018 92.03717 36624 ft 517 kts 132°
2026-04-26 10:57 18.84570 92.09669 36623 ft 517 kts 132°
2026-04-26 10:57 18.80111 92.15636 36624 ft 516 kts 132°
2026-04-26 10:58 18.75692 92.21545 36626 ft 516 kts 132°
2026-04-26 10:58 18.71260 92.27468 36626 ft 514 kts 131°
2026-04-26 10:59 18.66815 92.33401 36627 ft 515 kts 131°
2026-04-26 10:59 18.62368 92.39333 36628 ft 515 kts 131°
2026-04-26 11:00 18.57928 92.45252 36629 ft 514 kts 131°
2026-04-26 11:00 18.53490 92.51160 36628 ft 515 kts 131°
2026-04-26 11:01 18.49070 92.57040 36630 ft 515 kts 131°
2026-04-26 11:01 18.44602 92.62978 36631 ft 514 kts 131°
2026-04-26 11:02 18.40187 92.68842 36620 ft 514 kts 132°
2026-04-26 11:02 18.35723 92.74764 36619 ft 514 kts 131°
2026-04-26 11:03 18.31308 92.80615 36616 ft 515 kts 131°
2026-04-26 11:03 18.26838 92.86534 36613 ft 515 kts 131°
2026-04-26 11:04 18.22405 92.92399 36612 ft 513 kts 131°
2026-04-26 11:04 18.17965 92.98268 36616 ft 514 kts 131°
2026-04-26 11:05 18.13519 93.04139 36619 ft 515 kts 131°
2026-04-26 11:05 18.09050 93.10036 36624 ft 513 kts 131°
2026-04-26 11:06 18.05357 93.14904 36623 ft 512 kts 131°
2026-04-26 11:06 18.00172 93.21733 36625 ft 511 kts 131°
2026-04-26 11:07 17.95737 93.27569 36625 ft 513 kts 131°
2026-04-26 11:07 17.91298 93.33404 36626 ft 513 kts 131°
2026-04-26 11:08 17.89024 93.36390 36727 ft 524 kts 131°
2026-04-26 11:08 17.86756 93.39368 37299 ft 526 kts 131°
2026-04-26 11:08 17.84499 93.42330 38192 ft 521 kts 131°
2026-04-26 11:08 17.82247 93.45287 39113 ft 516 kts 132°
2026-04-26 11:09 17.80012 93.48220 39830 ft 513 kts 131°
2026-04-26 11:09 17.77789 93.51133 40323 ft 514 kts 131°
2026-04-26 11:09 17.75560 93.54053 40544 ft 516 kts 131°
2026-04-26 11:09 17.73482 93.56773 40539 ft 517 kts 131°
2026-04-26 11:10 17.69025 93.62608 40535 ft 516 kts 131°
2026-04-26 11:10 17.64534 93.68478 40524 ft 517 kts 132°
2026-04-26 11:11 17.60050 93.74338 40524 ft 516 kts 132°
2026-04-26 11:11 17.55572 93.80183 40521 ft 514 kts 132°
2026-04-26 11:12 17.51067 93.86058 40528 ft 516 kts 132°
2026-04-26 11:12 17.46611 93.91865 40524 ft 515 kts 132°
2026-04-26 11:13 17.42112 93.97722 40524 ft 515 kts 132°
2026-04-26 11:13 17.37649 94.03526 40510 ft 514 kts 131°
2026-04-26 11:14 17.33161 94.09360 40508 ft 515 kts 131°
2026-04-26 11:14 17.28668 94.15194 40516 ft 515 kts 131°
2026-04-26 11:15 17.24201 94.20990 40506 ft 514 kts 131°
2026-04-26 11:15 17.19685 94.26844 40495 ft 515 kts 131°
2026-04-26 11:16 17.15218 94.32629 40498 ft 516 kts 131°
2026-04-26 11:16 17.10716 94.38456 40502 ft 513 kts 131°
2026-04-26 11:17 17.06222 94.44267 40501 ft 514 kts 131°
2026-04-26 11:17 17.01721 94.50081 40487 ft 516 kts 131°
2026-04-26 11:18 16.97240 94.55864 40499 ft 515 kts 131°
2026-04-26 11:18 16.92734 94.61675 40502 ft 514 kts 131°
2026-04-26 11:19 16.88247 94.67458 40491 ft 513 kts 131°
2026-04-26 11:19 16.83756 94.73241 40496 ft 514 kts 131°
2026-04-26 11:20 16.80274 94.78241 40495 ft 516 kts 121°
2026-04-26 11:20 16.76437 94.86020 40492 ft 518 kts 118°
2026-04-26 11:21 16.73174 94.92765 40494 ft 518 kts 119°
2026-04-26 11:21 16.69932 94.99445 40487 ft 518 kts 118°
2026-04-26 11:22 16.66698 95.06097 40484 ft 517 kts 118°
2026-04-26 11:22 16.63444 95.12777 40485 ft 518 kts 118°
2026-04-26 11:23 16.60187 95.19456 40487 ft 518 kts 119°
2026-04-26 11:23 16.56931 95.26122 40493 ft 517 kts 119°
2026-04-26 11:24 16.53667 95.32801 40497 ft 516 kts 119°
2026-04-26 11:24 16.50407 95.39464 40494 ft 516 kts 119°
2026-04-26 11:25 16.47149 95.46114 40499 ft 518 kts 119°
2026-04-26 11:25 16.43910 95.52721 40499 ft 515 kts 119°
2026-04-26 11:26 16.40629 95.59405 40494 ft 517 kts 119°
2026-04-26 11:26 16.37371 95.66039 40491 ft 515 kts 119°
2026-04-26 11:27 16.34110 95.72669 40486 ft 515 kts 119°
2026-04-26 11:27 16.30869 95.79255 40492 ft 514 kts 119°
2026-04-26 11:28 16.27596 95.85897 40490 ft 516 kts 119°
2026-04-26 11:28 16.24350 95.92477 40490 ft 515 kts 119°
2026-04-26 11:29 16.21073 95.99116 40489 ft 514 kts 119°
2026-04-26 11:29 16.17831 96.05677 40503 ft 513 kts 119°
2026-04-26 11:30 16.15122 96.11155 40502 ft 513 kts 119°
2026-04-26 11:30 16.11307 96.18861 40503 ft 513 kts 119°
2026-04-26 11:31 16.08048 96.25438 40499 ft 513 kts 119°
2026-04-26 11:31 16.04791 96.32004 40505 ft 511 kts 119°
2026-04-26 11:32 16.01526 96.38581 40497 ft 513 kts 119°
2026-04-26 11:32 15.98258 96.45158 40491 ft 513 kts 119°
2026-04-26 11:33 15.94993 96.51722 40495 ft 510 kts 119°
2026-04-26 11:33 15.91744 96.58249 40490 ft 511 kts 119°
2026-04-26 11:34 15.88482 96.64793 40500 ft 510 kts 119°
2026-04-26 11:34 15.85228 96.71318 40498 ft 510 kts 119°
2026-04-26 11:35 15.81964 96.77855 40507 ft 510 kts 119°
2026-04-26 11:35 15.79254 96.83279 40503 ft 510 kts 119°
2026-04-26 11:36 15.75452 96.90881 40503 ft 510 kts 119°
2026-04-26 11:36 15.72183 96.97411 40508 ft 510 kts 119°
2026-04-26 11:37 15.68924 97.03915 40504 ft 508 kts 119°
2026-04-26 11:37 15.65654 97.10435 40507 ft 507 kts 119°
2026-04-26 11:38 15.62419 97.16880 40506 ft 508 kts 119°
2026-04-26 11:38 15.59147 97.23392 40510 ft 508 kts 119°
2026-04-26 11:39 15.56063 97.29524 40512 ft 507 kts 119°
2026-04-26 11:39 15.52798 97.36011 40513 ft 508 kts 119°
2026-04-26 11:40 15.49541 97.42477 40514 ft 508 kts 119°
2026-04-26 11:40 15.46284 97.48935 40515 ft 507 kts 119°
2026-04-26 11:42 15.33232 97.74763 40517 ft 505 kts 119°
2026-04-26 11:43 15.29979 97.81187 40522 ft 504 kts 119°
2026-04-26 11:43 15.26708 97.87640 40536 ft 504 kts 119°
2026-04-26 11:44 15.23465 97.94031 40549 ft 505 kts 119°
2026-04-26 11:44 15.20195 98.00471 40553 ft 503 kts 119°
2026-04-26 11:45 15.16944 98.06869 40570 ft 503 kts 119°
2026-04-26 11:45 15.13699 98.13247 40570 ft 503 kts 119°
2026-04-26 11:46 15.10445 98.19639 40595 ft 501 kts 119°
2026-04-26 11:46 15.07238 98.26032 40606 ft 501 kts 118°
2026-04-26 11:47 15.04056 98.32445 40593 ft 503 kts 118°
2026-04-26 11:47 15.00873 98.38847 40572 ft 501 kts 118°
2026-04-26 11:48 14.97694 98.45232 40565 ft 503 kts 118°
2026-04-26 11:48 14.94496 98.51650 40557 ft 501 kts 118°
2026-04-26 11:49 14.91325 98.58006 40346 ft 498 kts 118°
2026-04-26 11:49 14.89744 98.61173 40198 ft 496 kts 118°
2026-04-26 11:49 14.88160 98.64346 40311 ft 501 kts 118°
2026-04-26 11:50 14.84969 98.70728 40321 ft 503 kts 118°
2026-04-26 11:50 14.81763 98.77138 40337 ft 501 kts 118°
2026-04-26 11:51 14.78569 98.83518 40318 ft 503 kts 118°
2026-04-26 11:51 14.75374 98.89895 40303 ft 499 kts 118°
2026-04-26 11:52 14.72715 98.95196 40290 ft 500 kts 118°
2026-04-26 11:52 14.68986 99.02625 40281 ft 501 kts 118°
2026-04-26 11:53 14.65781 99.09006 40302 ft 500 kts 118°
2026-04-26 11:54 14.65703 99.09161 40302 ft 500 kts 118°
2026-04-26 11:54 14.62990 99.14559 39879 ft 490 kts 118°
2026-04-26 11:54 14.61425 99.17669 38718 ft 495 kts 118°
2026-04-26 11:55 14.59826 99.20844 37428 ft 504 kts 118°
2026-04-26 11:55 14.58217 99.24040 36192 ft 511 kts 117°
2026-04-26 11:55 14.56566 99.27317 34952 ft 515 kts 117°
2026-04-26 11:55 14.54927 99.30570 33579 ft 517 kts 116°
2026-04-26 11:56 14.53258 99.33881 31913 ft 524 kts 116°
2026-04-26 11:56 14.51584 99.37202 30468 ft 525 kts 116°
2026-04-26 11:56 14.49919 99.40501 29748 ft 511 kts 116°
2026-04-26 11:56 14.48309 99.43689 29356 ft 495 kts 116°
2026-04-26 11:57 14.46692 99.46894 28774 ft 514 kts 116°
2026-04-26 11:57 14.45163 99.50219 28066 ft 512 kts 109°
2026-04-26 11:57 14.44121 99.53683 27447 ft 504 kts 101°
2026-04-26 11:57 14.43586 99.57217 26739 ft 498 kts 93°
2026-04-26 11:58 14.43338 99.60721 26032 ft 494 kts 91°
2026-04-26 11:58 14.43118 99.64269 25338 ft 490 kts 91°
2026-04-26 11:58 14.42903 99.67737 24648 ft 486 kts 91°
2026-04-26 11:58 14.42689 99.71174 23963 ft 481 kts 91°
2026-04-26 11:59 14.42474 99.74609 23280 ft 477 kts 91°
2026-04-26 11:59 14.42263 99.77970 22591 ft 473 kts 91°
2026-04-26 11:59 14.42052 99.81307 21918 ft 468 kts 92°
2026-04-26 11:59 14.41839 99.84663 21233 ft 463 kts 92°
2026-04-26 12:00 14.41630 99.87946 20544 ft 459 kts 92°
2026-04-26 12:00 14.41423 99.91175 19862 ft 455 kts 92°
2026-04-26 12:00 14.41215 99.94437 19159 ft 451 kts 92°
2026-04-26 12:00 14.41009 99.97634 18464 ft 447 kts 92°
2026-04-26 12:01 14.40808 100.00764 17938 ft 438 kts 92°
2026-04-26 12:01 14.40610 100.03828 17807 ft 420 kts 92°
2026-04-26 12:01 14.40223 100.06743 17797 ft 401 kts 101°
2026-04-26 12:01 14.39577 100.09470 17793 ft 383 kts 103°
2026-04-26 12:02 14.38925 100.12114 17560 ft 381 kts 103°
2026-04-26 12:02 14.38487 100.13884 17166 ft 382 kts 103°
2026-04-26 12:02 14.37622 100.17367 16612 ft 375 kts 103°
2026-04-26 12:02 14.36974 100.19968 16311 ft 368 kts 103°
2026-04-26 12:03 14.36340 100.22508 16038 ft 366 kts 103°
2026-04-26 12:03 14.35705 100.25051 15767 ft 365 kts 104°
2026-04-26 12:03 14.35077 100.27563 15498 ft 365 kts 104°
2026-04-26 12:03 14.34445 100.30091 15226 ft 363 kts 104°
2026-04-26 12:04 14.33812 100.32615 14956 ft 361 kts 104°
2026-04-26 12:04 14.33193 100.35085 14687 ft 361 kts 104°
2026-04-26 12:04 14.32566 100.37588 14368 ft 358 kts 104°
2026-04-26 12:04 14.31945 100.40062 14054 ft 355 kts 104°
2026-04-26 12:05 14.31329 100.42516 13787 ft 350 kts 104°
2026-04-26 12:05 14.30733 100.44893 13692 ft 337 kts 104°
2026-04-26 12:05 14.30158 100.47178 13673 ft 321 kts 104°
2026-04-26 12:05 14.29608 100.49367 13486 ft 313 kts 105°
2026-04-26 12:06 14.29066 100.51521 13106 ft 313 kts 105°
2026-04-26 12:06 14.28519 100.53696 12734 ft 312 kts 105°
2026-04-26 12:06 14.27981 100.55833 12354 ft 311 kts 105°
2026-04-26 12:06 14.27432 100.58014 11971 ft 310 kts 105°
2026-04-26 12:07 14.26897 100.60138 11612 ft 309 kts 105°
2026-04-26 12:07 14.26237 100.62245 11243 ft 307 kts 117°
2026-04-26 12:07 14.24970 100.63992 10866 ft 302 kts 140°
2026-04-26 12:07 14.23201 100.65107 10792 ft 300 kts 161°
2026-04-26 12:08 14.21184 100.65489 10967 ft 299 kts 181°
2026-04-26 12:08 14.19084 100.65290 11008 ft 299 kts 190°
2026-04-26 12:08 14.17052 100.64907 11000 ft 298 kts 193°
2026-04-26 12:08 14.16738 100.64838 10989 ft 298 kts 193°
2026-04-26 12:13 14.16394 100.64761 10973 ft 298 kts 194°
2026-04-26 12:13 14.14388 100.64271 10726 ft 293 kts 195°
2026-04-26 12:14 14.12405 100.63759 10317 ft 294 kts 196°
2026-04-26 12:14 14.10408 100.63235 9952 ft 294 kts 196°
2026-04-26 12:14 14.08433 100.62715 9600 ft 292 kts 196°
2026-04-26 12:14 14.06474 100.62200 9255 ft 291 kts 197°
2026-04-26 12:15 14.04510 100.61684 9044 ft 287 kts 196°
2026-04-26 12:15 14.02522 100.61364 9009 ft 292 kts 179°
2026-04-26 12:15 14.00530 100.61910 8997 ft 296 kts 153°
2026-04-26 12:15 13.98955 100.63226 8711 ft 295 kts 129°
2026-04-26 12:16 13.98022 100.65102 8250 ft 299 kts 107°
2026-04-26 12:16 13.97520 100.67178 7927 ft 296 kts 100°
2026-04-26 12:16 13.97565 100.69242 7583 ft 294 kts 76°
2026-04-26 12:16 13.98453 100.71117 7220 ft 291 kts 51°
2026-04-26 12:17 13.99725 100.72729 6915 ft 287 kts 56°
2026-04-26 12:17 14.00736 100.74478 6631 ft 284 kts 59°
2026-04-26 12:17 14.01708 100.76241 6337 ft 282 kts 60°
2026-04-26 12:17 14.02450 100.78094 6000 ft 281 kts 78°
2026-04-26 12:18 14.02543 100.80083 5662 ft 280 kts 94°
2026-04-26 12:18 14.02060 100.82016 5319 ft 279 kts 117°
2026-04-26 12:18 14.00798 100.83507 4963 ft 279 kts 145°
2026-04-26 12:18 13.99011 100.84225 4702 ft 274 kts 173°
2026-04-26 12:19 13.97132 100.84026 4472 ft 269 kts 199°
2026-04-26 12:19 13.95425 100.83272 4230 ft 266 kts 202°
2026-04-26 12:19 13.93697 100.82629 3953 ft 264 kts 196°
2026-04-26 12:19 13.91919 100.82103 3664 ft 263 kts 194°
2026-04-26 12:20 13.90173 100.81631 3488 ft 257 kts 193°
2026-04-26 12:20 13.88472 100.81181 3425 ft 246 kts 194°
2026-04-26 12:20 13.86805 100.80741 3357 ft 250 kts 193°
2026-04-26 12:20 13.85090 100.80301 1501 ft 246 kts 193°
2026-04-26 12:21 13.83510 100.79881 1612 ft 229 kts 193°
2026-04-26 12:21 13.81991 100.79475 1627 ft 216 kts 193°
2026-04-26 12:21 13.80584 100.79104 1631 ft 198 kts 193°
2026-04-26 12:21 13.79337 100.78775 1622 ft 168 kts 193°
2026-04-26 12:22 13.78279 100.78496 1621 ft 144 kts 193°
2026-04-26 12:22 13.77347 100.78231 1583 ft 141 kts 193°
2026-04-26 12:22 13.76409 100.77988 1403 ft 135 kts 192°
2026-04-26 12:22 13.75492 100.77750 1238 ft 134 kts 193°
2026-04-26 12:23 13.74596 100.77515 1074 ft 134 kts 193°
2026-04-26 12:23 13.73687 100.77279 904 ft 133 kts 193°
2026-04-26 12:23 13.72790 100.77044 735 ft 133 kts 193°
2026-04-26 12:23 13.71885 100.76807 557 ft 132 kts 193°
2026-04-26 12:24 13.71000 100.76576 397 ft 132 kts 193°
2026-04-26 12:24 13.70108 100.76345 240 ft 131 kts 192°
2026-04-26 12:24 13.69220 100.76125 75 ft 131 kts 194°
2026-04-26 12:25 13.67785 100.75741 15 ft 58 kts 194°
2026-04-26 12:25 13.67520 100.75668 15 ft 32 kts 196°
2026-04-26 12:25 13.67313 100.75616 15 ft 29 kts 192°
2026-04-26 12:25 13.67175 100.75539 15 ft 16 kts 224°
2026-04-26 12:26 13.67124 100.75439 15 ft 16 kts 271°
2026-04-26 12:26 13.67198 100.75384 15 ft 15 kts 16°
2026-04-26 12:26 13.67303 100.75427 15 ft 16 kts 21°
2026-04-26 12:26 13.67412 100.75462 15 ft 16 kts 15°
2026-04-26 12:27 13.67508 100.75488 15 ft 7 kts 14°
2026-04-26 12:27 13.67560 100.75500 15 ft 7 kts
2026-04-26 12:27 13.67615 100.75478 15 ft 9 kts 328°
2026-04-26 12:27 13.67664 100.75434 15 ft 9 kts 311°
2026-04-26 12:28 13.67696 100.75372 15 ft 10 kts 287°
2026-04-26 12:28 13.67715 100.75298 15 ft 10 kts 284°
2026-04-26 12:28 13.67733 100.75219 15 ft 11 kts 283°
2026-04-26 12:28 13.67753 100.75137 15 ft 12 kts 285°
2026-04-26 12:29 13.67776 100.75052 15 ft 12 kts 285°
2026-04-26 12:29 13.67811 100.74968 15 ft 12 kts 313°
2026-04-26 12:29 13.67948 100.74960 15 ft 3 kts 359°
2026-04-26 12:30 13.67980 100.74953 15 ft 5 kts 342°
2026-04-26 12:30 13.68020 100.74953 15 ft 6 kts
2026-04-26 12:30 13.68053 100.74960 15 ft 0 kts 14°
2026-04-26 12:31 13.68078 100.74966 15 ft 0 kts 14°
2026-04-26 12:31 13.68085 100.74968 15 ft 0 kts 14°
2026-04-26 12:31 13.68087 100.74969 15 ft 0 kts 14°